GFSMW_500_spd_024.txt.gz
Wind_Speed
27 28 26 29 29 32 34 39 40 43 45 46 50 51 53 55 56 57 57 55 57 55 57 58 59 61 64 65 65 66 65 66 68 68 68 68 68 69 68 69 70 70 70
26 26 29 30 32 35 38 41 44 46 46 49 52 52 54 56 57 57 57 57 60 59 60 62 65 68 69 69 69 69 69 70 69 71 72 72 71 70 69 68 68 69 71
28 28 30 33 36 39 41 44 46 48 48 52 55 54 54 54 55 58 60 60 60 64 68 71 72 72 72 71 73 74 77 75 73 74 76 76 75 74 70 69 69 61 55
30 31 34 37 39 41 43 45 49 50 51 51 51 52 53 56 58 59 61 64 67 70 72 74 76 77 75 74 76 76 75 76 75 74 74 75 76 76 75 68 65 65 62
35 37 38 40 41 42 44 47 50 52 50 49 51 54 55 57 60 63 65 68 70 73 76 78 79 78 77 79 79 76 76 77 76 75 74 74 75 76 76 74 71 67 67
38 40 41 45 44 43 43 44 46 48 51 52 53 54 57 60 63 65 69 72 76 78 79 80 80 80 82 85 86 84 84 78 78 79 79 78 78 78 80 79 77 77 75
37 41 43 45 47 48 43 41 43 47 50 54 59 63 64 66 70 73 76 79 80 80 79 80 80 82 85 86 87 88 85 84 82 81 82 82 83 85 86 87 85 83 82
39 43 44 44 43 42 43 45 47 50 55 58 62 66 70 72 76 79 82 82 78 78 78 79 81 84 87 87 86 87 86 85 84 84 84 85 85 86 83 81 82 78 79
39 41 41 40 40 43 45 49 52 55 59 62 64 68 72 77 81 81 80 78 77 78 80 83 87 84 85 85 83 82 80 78 75 72 71 68 63 59 58 57 56 55 51
38 38 37 40 43 46 48 51 55 59 64 69 73 78 82 84 81 78 79 78 77 78 80 81 83 83 82 79 75 68 62 57 54 53 51 49 48 48 50 49 46 45 45
37 38 39 41 43 47 52 56 62 66 71 76 80 81 83 82 78 77 77 76 78 80 81 82 81 81 76 69 60 54 48 45 45 47 49 48 48 48 49 50 50 49 48
35 38 41 45 49 54 60 65 70 76 79 81 84 82 80 80 78 77 78 79 79 79 78 78 76 67 60 55 51 47 47 47 47 47 47 47 47 47 48 49 49 49 49
40 43 46 49 54 60 64 72 76 79 82 82 82 80 80 79 77 79 78 78 77 75 74 71 63 56 52 49 50 49 50 50 49 49 50 50 51 51 52 52 50 48 46
44 48 52 57 62 68 73 78 81 83 84 80 80 80 82 83 81 82 81 78 76 75 71 61 55 52 49 50 50 51 51 52 53 53 53 53 53 53 54 54 54 52 49
48 51 56 63 69 75 79 82 85 85 85 83 83 83 86 85 80 80 78 76 75 70 61 56 54 50 50 51 52 52 55 57 55 54 52 51 50 51 51 53 53 53 52
53 58 64 71 77 81 84 87 89 86 87 87 86 87 87 86 79 78 75 72 67 60 55 54 51 50 51 53 53 57 59 57 53 51 49 48 47 47 48 48 49 48 48
60 66 71 76 79 83 85 85 87 85 85 87 89 88 89 81 74 72 69 64 60 57 53 48 47 50 52 54 57 56 53 50 47 45 44 43 43 44 46 44 44 42 41
65 70 75 79 82 83 86 85 84 86 88 88 88 82 83 77 72 73 66 61 56 51 45 44 48 50 54 58 55 50 48 44 41 40 40 40 39 39 40 38 35 34 33
70 75 78 81 82 87 89 87 87 87 86 84 80 70 60 64 68 67 66 59 47 41 41 47 49 51 53 52 49 47 45 42 40 38 37 37 37 35 35 31 27 26 26
73 76 80 85 87 86 86 87 87 87 84 82 74 68 65 65 65 59 54 50 39 40 42 46 48 51 51 48 48 46 46 44 41 39 37 36 35 30 26 23 20 19 21
78 81 84 84 83 84 86 88 88 84 78 73 70 68 65 50 46 49 43 36 37 39 43 43 47 48 47 46 46 45 43 38 33 31 30 28 24 18 15 13 12 12 14
80 82 82 83 84 87 90 91 86 80 74 70 67 61 52 47 43 33 26 30 32 38 40 42 45 45 43 45 42 37 33 29 26 22 18 13 9 5 2 2 7 11 12
81 80 82 84 86 89 91 92 85 77 73 66 57 53 47 36 25 23 25 28 35 38 39 43 42 42 40 41 34 32 30 22 21 19 16 13 11 9 5 3 9 12 13
80 81 83 86 89 91 88 80 76 71 61 55 52 38 27 18 22 21 24 31 35 37 39 42 40 40 38 35 28 29 20 19 18 16 14 13 11 7 5 7 10 11 11
82 84 86 89 89 85 78 73 65 55 52 47 32 24 17 22 18 21 26 33 35 36 39 40 38 39 35 30 27 21 16 17 16 15 14 11 10 10 9 9 10 10 9
82 84 87 87 83 77 68 61 51 48 41 30 22 19 23 21 18 24 30 34 34 36 38 38 36 37 33 27 25 17 15 15 15 12 11 8 7 7 8 7 6 5 6

GFSMW_500_spd_027.txt.gz
Wind_Speed
25 27 29 30 27 30 33 36 40 42 45 47 49 51 52 54 55 55 53 53 55 56 57 58 60 62 63 64 66 68 70 70 72 73 73 73 71 69 69 70 70 71 71
26 28 29 31 32 34 38 40 41 44 47 49 50 51 53 53 53 53 56 57 58 60 62 63 65 66 67 69 71 74 75 77 80 81 80 79 75 74 72 70 72 74 75
23 26 31 32 34 38 40 43 44 46 48 49 50 49 48 49 51 54 56 59 62 64 66 68 70 73 76 78 81 82 82 81 78 78 81 82 82 81 75 71 73 73 73
25 25 31 35 39 41 42 44 46 45 45 47 47 47 48 50 53 56 59 60 63 67 72 74 77 80 82 83 85 84 82 81 80 79 81 84 85 83 81 75 74 73 71
29 32 35 37 38 40 43 44 45 46 47 43 43 45 49 53 56 59 63 66 69 72 75 79 81 82 83 82 80 81 80 79 80 81 82 83 84 84 85 79 75 76 75
39 39 39 39 39 39 39 39 40 45 47 48 50 51 53 55 59 64 68 72 75 78 80 82 83 81 80 81 81 81 81 82 83 82 83 84 83 84 85 84 80 79 78
39 40 43 44 43 41 38 38 39 41 44 46 51 55 61 65 70 75 79 80 82 83 84 82 80 79 80 80 79 80 81 82 81 82 82 83 84 84 85 85 83 82 80
37 41 44 42 41 42 42 42 43 44 46 50 55 59 66 72 76 79 80 82 82 81 78 77 78 78 78 79 80 80 80 81 81 80 77 75 74 71 68 67 65 64 66
39 40 42 39 38 38 41 42 45 49 54 59 65 70 75 78 81 81 82 80 78 78 77 78 79 79 79 79 78 77 75 70 65 61 58 54 52 49 47 43 51 51 49
40 36 36 37 39 39 43 47 51 56 62 68 72 75 78 81 83 83 81 79 79 79 80 80 78 77 77 75 72 67 59 54 50 46 43 44 45 45 46 48 49 49 54
32 34 33 35 38 43 46 51 56 62 68 72 76 81 83 86 85 81 80 82 82 82 79 77 75 72 70 67 63 56 51 47 44 44 45 44 45 46 47 47 48 49 51
32 32 35 39 44 49 54 59 63 69 73 77 80 84 86 85 83 79 79 81 81 77 74 70 67 65 61 57 53 51 47 45 46 47 48 48 48 49 50 50 51 52 52
34 38 41 46 49 54 59 65 71 75 79 82 85 86 85 85 82 80 82 83 80 77 67 65 61 58 55 53 51 47 44 46 49 50 50 51 53 53 54 54 54 55 55
38 42 47 50 55 60 65 71 75 79 83 86 87 87 90 92 91 91 91 87 82 68 65 64 61 57 54 51 45 43 46 48 49 52 55 55 55 54 54 55 54 53 54
42 46 50 55 59 64 70 75 79 82 85 86 90 91 91 93 96 92 83 75 71 67 68 64 59 54 47 42 42 45 48 51 54 53 50 49 47 47 50 51 50 49 49
45 49 54 58 64 69 73 78 83 87 89 91 93 93 93 93 85 74 65 59 62 70 67 61 55 43 40 43 45 47 51 52 50 48 43 41 41 44 45 46 45 46 45
49 54 59 66 71 76 81 84 87 89 91 92 92 93 90 84 74 65 52 56 64 67 59 48 42 38 41 44 47 50 50 49 47 44 41 41 41 42 41 40 39 38 39
55 60 66 71 76 80 82 83 86 87 87 90 92 90 86 78 69 64 59 55 49 53 55 38 37 40 44 46 51 50 49 48 47 46 45 42 39 41 40 38 36 33 32
61 66 69 73 76 80 84 89 89 87 89 90 91 86 79 70 64 57 50 39 45 50 33 34 38 42 43 48 48 47 46 44 41 39 38 38 36 34 33 32 31 28 26
63 67 71 75 80 83 86 88 87 87 90 92 88 81 72 61 52 49 42 39 36 28 28 35 40 41 45 45 45 44 41 38 36 35 34 33 30 26 25 24 21 18 19
67 71 75 78 83 85 84 85 87 91 93 89 78 67 57 55 49 40 26 25 23 24 31 35 38 41 43 42 41 40 35 32 27 29 27 26 22 17 13 11 10 9 11
69 73 78 81 82 83 84 87 90 91 87 76 64 54 51 41 30 21 18 19 19 27 32 35 37 42 40 40 38 33 32 25 24 25 26 24 22 17 12 8 3 4 8
72 76 79 80 82 83 85 89 89 85 73 62 52 47 37 26 19 22 18 20 26 31 33 35 37 40 36 36 35 31 26 22 24 24 23 23 19 15 11 7 4 5 9
74 77 79 80 81 81 85 88 83 72 62 50 44 35 25 20 24 21 20 24 29 33 33 36 39 37 34 33 31 28 21 20 23 23 21 19 16 14 13 12 10 8 10
75 77 78 79 80 82 84 82 74 62 50 41 34 24 21 24 25 22 22 27 31 33 33 37 40 36 32 31 28 22 16 17 19 19 16 15 13 13 13 12 11 10 9
75 76 78 79 79 81 80 74 63 52 41 35 26 22 24 25 24 22 25 29 33 33 34 38 41 36 32 31 27 22 17 14 16 16 13 10 10 9 9 8 8 7 5

GFSMW_500_spd_030.txt.gz
Wind_Speed
22 25 26 25 28 29 32 31 40 43 46 49 49 49 51 52 52 50 48 48 49 51 54 56 58 60 62 63 65 67 69 72 74 75 75 76 78 79 80 80 81 81 81
23 24 25 23 26 31 34 41 44 48 51 51 51 52 53 53 52 52 52 54 56 58 60 63 66 69 71 74 75 75 77 77 78 80 81 79 78 78 81 82 80 80 81
19 21 23 27 29 33 37 40 44 46 48 49 50 51 50 48 49 51 53 55 58 61 65 70 74 76 78 81 83 84 86 86 85 83 83 83 82 81 79 79 80 77 79
27 23 23 27 32 36 38 40 43 46 48 49 49 47 47 49 51 52 55 59 63 68 72 76 78 81 83 86 88 88 86 85 83 83 84 85 87 86 80 79 78 78 79
26 22 32 33 36 37 40 42 44 46 46 43 41 42 45 47 49 54 58 61 67 71 75 78 81 82 84 83 82 81 80 81 81 82 82 82 83 85 83 76 78 80 82
28 34 39 37 39 39 42 45 46 44 42 41 41 41 45 50 56 62 67 71 74 78 81 82 84 84 83 82 81 80 81 81 82 84 85 85 84 85 87 86 82 82 83
34 35 34 40 39 44 43 40 39 38 38 38 42 47 53 58 65 70 74 78 81 84 86 87 85 82 80 80 81 82 83 84 84 84 85 85 85 84 84 85 84 85 83
35 32 41 46 44 39 34 33 32 33 36 41 47 53 59 66 71 75 79 83 86 89 89 86 83 82 82 82 84 85 84 83 82 80 77 73 70 68 65 66 66 65 64
43 44 43 39 36 35 33 35 38 41 46 52 57 62 68 72 77 81 85 87 88 88 86 85 86 84 84 84 83 81 76 71 68 65 63 61 58 57 54 51 50 51 50
42 40 32 33 32 34 37 41 45 49 55 58 63 68 73 77 82 85 86 86 86 87 87 86 85 82 80 74 69 67 62 60 58 57 54 54 52 49 48 48 48 49 50
32 33 35 34 35 38 43 46 50 54 59 65 69 73 78 82 85 85 83 84 87 88 87 85 81 73 60 62 62 60 56 56 56 55 52 49 47 48 49 50 50 50 52
32 32 33 36 39 43 47 51 56 61 66 69 73 77 82 84 85 87 88 89 92 92 87 78 68 60 63 66 72 68 57 53 49 46 45 46 48 49 51 52 52 53 53
31 35 38 41 44 47 51 55 61 66 70 73 77 81 84 86 88 90 95 97 96 86 67 62 64 59 59 66 73 60 49 44 44 45 47 48 51 52 54 56 56 56 56
34 38 41 44 48 52 56 61 65 69 73 77 80 82 87 93 97 97 98 96 90 78 49 59 53 57 65 69 61 47 45 46 47 48 51 54 54 52 51 51 50 49 50
37 40 44 48 51 56 60 64 68 72 75 80 86 91 94 95 95 97 96 90 76 70 55 53 58 65 69 61 49 45 46 46 49 53 52 51 51 50 50 47 42 40 40
39 43 47 50 54 59 63 67 71 75 82 86 89 91 91 94 97 96 90 76 66 51 55 55 58 61 52 48 42 45 45 49 51 51 49 49 48 47 48 48 47 44 41
43 46 49 54 57 62 67 71 76 81 83 86 89 90 91 94 93 85 74 62 52 46 47 45 44 46 40 39 43 45 48 49 49 48 44 44 45 44 43 42 42 42 41
45 49 54 58 61 66 72 76 78 82 84 87 87 88 90 90 84 73 63 58 50 41 36 37 40 32 37 41 43 47 48 48 45 41 43 37 36 37 37 36 34 35 37
48 53 58 61 65 69 72 76 81 85 85 85 86 88 91 87 73 61 56 46 34 24 24 25 28 35 38 41 45 46 45 43 38 38 34 33 34 32 32 29 27 28 31
54 58 62 65 69 72 75 78 81 82 83 84 87 90 86 73 58 52 38 26 18 20 22 29 33 36 39 41 44 42 41 35 33 31 33 36 35 32 28 24 20 17 19
58 62 65 69 73 75 77 80 82 84 85 86 89 84 72 56 48 37 23 25 24 22 26 31 34 35 38 43 41 40 38 30 25 27 31 33 30 27 22 18 17 13 11
62 66 69 73 75 79 80 81 81 82 82 85 83 72 56 46 36 24 27 26 24 27 31 35 36 37 41 43 38 38 33 26 22 26 29 27 26 23 18 14 13 9 6
68 70 73 76 79 80 79 80 80 81 81 82 74 60 46 37 26 26 28 25 25 29 33 35 36 38 41 40 35 35 31 23 22 25 25 22 21 20 18 16 14 11 9
72 73 76 78 79 77 78 79 80 80 80 72 62 50 40 29 26 27 28 25 27 30 34 36 36 39 41 37 32 32 29 23 20 22 22 19 18 18 17 16 16 14 8
74 75 77 77 76 76 78 78 78 79 72 63 53 42 35 26 26 28 28 25 27 30 33 36 36 38 41 38 32 30 28 22 18 18 18 15 15 15 15 15 13 12 8
74 76 76 75 75 77 78 78 77 73 62 56 46 38 31 26 26 28 28 26 27 30 33 35 36 38 40 38 31 29 29 23 18 15 16 14 12 11 11 12 12 10 8

GFSMW_500_spd_033.txt.gz
Wind_Speed
19 19 20 23 23 19 19 25 28 37 44 46 48 49 50 52 52 52 50 46 46 46 47 50 54 58 61 63 65 65 67 68 70 70 69 69 70 71 73 74 74 75 76
20 24 23 25 22 22 28 32 38 43 46 49 50 52 53 54 54 52 50 49 48 51 55 59 63 67 69 72 75 77 78 79 80 81 80 81 78 77 76 79 80 81 82
24 23 26 22 22 26 31 35 41 46 48 50 52 53 54 54 51 49 48 49 53 57 62 67 70 74 77 79 81 83 85 86 86 86 86 85 84 84 79 79 81 82 84
23 26 25 28 27 31 38 43 45 49 49 50 52 53 52 50 50 51 54 58 61 65 69 73 76 78 81 83 84 85 86 86 85 84 84 85 86 88 88 85 83 85 87
28 26 27 32 36 39 42 42 46 48 52 51 49 45 44 45 49 52 56 60 64 69 72 75 79 82 84 86 87 86 85 84 84 85 85 86 87 89 89 86 85 88 91
24 26 30 34 38 40 39 43 47 51 45 42 41 41 44 48 52 56 61 65 69 73 78 82 85 87 87 86 86 86 87 87 89 90 90 90 90 90 92 93 91 93 92
29 31 37 37 36 36 44 46 43 40 37 37 40 43 48 53 58 63 68 71 75 79 83 86 87 86 85 86 87 88 88 87 87 88 87 85 84 84 83 84 82 82 81
30 32 31 41 36 44 43 41 36 33 35 39 43 48 54 58 63 66 70 76 82 87 89 90 91 92 92 92 93 96 91 85 80 77 70 72 72 70 68 67 66 63 61
35 40 44 47 44 44 42 33 34 37 40 44 49 54 59 64 69 74 79 84 88 90 91 93 93 96 98 99 98 93 81 67 66 65 67 68 62 60 59 59 58 58 55
32 36 38 38 40 35 32 36 40 43 47 52 56 61 65 70 76 80 83 87 90 91 93 96 98 100 99 94 78 63 62 63 65 68 76 58 52 52 53 53 52 52 52
29 31 33 34 34 34 39 42 45 48 53 57 62 66 70 74 78 81 86 89 93 96 99 100 99 97 81 60 59 65 67 65 65 71 68 45 45 45 46 48 49 50 54
34 35 35 36 36 40 43 46 49 53 58 61 65 70 74 79 83 88 91 95 97 99 98 99 96 84 64 54 58 64 62 62 69 71 47 47 49 48 49 50 51 53 55
36 38 39 38 40 43 46 50 54 57 61 64 69 74 78 82 87 90 94 95 97 97 99 94 80 66 57 54 59 62 65 70 66 49 49 51 50 51 53 53 53 53 55
38 41 42 41 43 47 50 53 57 61 64 69 73 78 82 87 90 92 95 98 98 100 97 81 67 59 52 56 61 60 52 50 47 51 51 53 54 53 52 51 50 51 51
38 39 41 43 46 50 54 58 61 65 68 73 78 81 86 90 91 93 95 97 97 94 77 68 63 51 50 56 55 42 43 45 48 50 53 52 52 49 46 47 47 48 48
40 40 42 45 49 53 56 60 65 69 72 77 80 84 88 90 91 94 95 95 92 73 64 59 50 41 38 37 33 39 44 47 48 50 48 49 44 43 39 41 42 43 43
43 44 46 49 52 55 60 65 69 72 76 79 82 86 88 89 90 91 93 92 71 61 50 38 27 25 27 32 37 41 44 46 48 46 47 42 37 38 40 42 42 41 41
46 47 49 51 54 59 64 68 72 76 80 83 86 87 86 87 89 91 90 72 58 46 32 29 29 31 33 37 38 42 45 47 44 45 41 35 36 40 42 41 39 38 37
49 49 50 53 58 62 67 72 76 79 82 84 85 86 86 88 89 88 76 56 45 32 32 31 33 36 38 38 40 43 45 41 40 39 36 34 38 39 39 37 33 32 32
49 49 52 56 62 67 71 76 78 80 83 85 85 86 88 87 84 77 58 47 34 32 31 32 34 37 37 38 42 44 42 36 35 34 32 34 35 34 35 33 30 27 26
50 51 56 62 66 70 75 78 79 83 84 83 84 86 86 82 76 62 48 38 33 32 31 33 36 38 38 40 42 44 39 34 31 27 28 31 30 30 30 30 27 23 20
52 56 61 65 69 73 76 78 82 83 81 82 85 84 80 73 63 51 41 34 31 33 32 34 36 38 40 40 42 43 38 33 28 24 25 27 26 26 27 27 26 22 19
57 61 66 70 74 76 78 81 81 80 80 84 84 78 73 64 54 43 36 31 31 33 32 34 36 39 40 41 42 42 37 32 29 22 22 23 22 22 24 24 24 24 21
63 67 70 73 76 79 80 80 78 79 83 82 77 72 63 56 47 39 32 30 31 32 32 34 36 38 40 40 42 42 36 31 30 23 20 21 20 18 19 21 22 21 19
66 71 74 76 78 80 79 76 79 82 81 76 71 64 57 50 43 35 30 29 30 30 31 33 35 37 38 39 41 40 34 28 28 24 20 19 18 17 16 17 19 18 16
71 73 74 76 78 77 75 78 80 79 75 70 64 59 52 45 40 33 28 28 28 30 30 32 34 35 36 38 40 39 33 26 26 26 20 18 17 16 15 14 14 14 13

GFSMW_500_spd_036.txt.gz
Wind_Speed
12 13 15 20 21 20 19 18 21 36 37 39 45 46 46 53 53 53 52 51 50 46 43 44 49 53 56 60 63 65 69 71 73 75 76 77 78 78 78 78 78 78 78
15 17 16 20 21 19 20 28 34 39 45 47 50 52 53 53 55 54 52 50 46 45 48 53 58 62 66 69 72 74 77 79 81 82 83 84 82 80 80 80 80 81 81
20 21 21 24 28 28 29 33 36 39 45 49 50 53 55 56 54 51 48 46 49 55 59 63 66 69 72 74 76 78 80 82 83 85 87 88 90 91 88 85 84 83 83
26 27 25 29 31 29 33 37 40 44 48 50 53 55 54 50 49 47 49 53 56 58 61 65 68 71 75 77 80 82 84 85 88 89 91 91 93 94 94 94 92 91 90
29 27 30 33 28 33 38 42 43 46 45 50 52 49 46 46 47 50 53 55 58 62 66 69 73 75 79 81 85 87 90 92 93 95 95 95 95 96 97 95 92 90 92
28 27 30 31 30 39 46 47 37 49 47 46 48 47 44 45 48 51 55 59 64 67 70 74 77 81 85 90 92 93 95 96 96 96 97 97 94 89 85 84 81 81 81
29 29 30 31 34 40 40 51 45 48 45 45 44 44 46 49 52 56 60 64 67 71 76 81 84 87 90 93 94 97 99 100 99 98 91 79 70 66 66 64 69 75 71
26 27 28 34 39 47 49 49 48 46 43 41 44 47 50 52 56 60 64 68 74 79 82 86 90 92 93 96 100 102 103 103 95 82 67 59 64 67 64 65 71 56 52
19 25 32 37 40 43 45 47 48 42 41 44 46 49 53 57 61 64 69 75 80 83 86 90 93 95 98 103 105 105 103 87 73 61 59 56 62 67 64 67 51 47 42
23 27 32 36 39 42 44 45 40 42 45 46 50 54 58 62 67 71 75 80 83 87 92 95 97 100 102 104 106 95 79 68 54 58 61 64 67 64 69 52 50 50 49
26 29 32 35 38 40 41 40 42 46 48 52 56 59 62 67 72 76 81 84 88 93 97 98 100 103 105 106 88 74 68 54 55 55 54 62 60 54 48 51 52 51 52
29 31 34 36 39 42 43 45 47 50 53 56 59 62 67 73 77 81 86 89 92 95 96 97 99 101 102 86 72 66 54 57 61 61 62 52 46 48 51 52 53 52 52
36 37 38 40 41 44 47 49 51 53 56 59 62 67 72 76 80 84 89 92 92 93 94 96 97 98 79 68 60 52 47 52 56 55 43 47 49 50 52 51 50 49 48
38 39 40 41 44 46 48 50 53 55 58 61 65 70 74 79 83 88 91 92 92 92 94 94 94 74 62 52 40 34 33 34 37 42 46 48 50 50 49 47 44 44 43
39 40 42 44 46 49 51 52 54 56 60 64 69 74 78 83 86 89 91 90 90 93 92 91 70 55 41 34 34 35 36 38 40 45 46 50 47 48 44 40 38 42 44
42 44 46 47 49 51 52 53 55 59 62 68 73 77 82 85 87 90 89 89 92 91 88 71 52 41 36 35 37 39 40 41 44 46 47 43 44 40 37 40 44 46 46
45 47 48 49 52 52 53 54 57 61 67 71 76 80 82 85 88 88 87 90 89 85 71 54 41 37 36 37 41 42 41 43 45 47 41 40 37 34 37 40 41 43 43
50 50 51 52 52 53 54 57 60 66 71 75 78 81 83 86 87 85 89 89 84 70 55 42 36 35 36 38 41 43 43 45 47 44 39 37 31 33 35 36 39 41 39
51 52 52 53 54 54 56 60 65 70 74 78 81 84 85 86 85 88 87 82 70 57 45 36 35 35 36 38 42 44 43 44 45 38 37 32 30 32 33 35 37 39 36
53 52 53 54 56 58 60 64 68 73 77 80 83 85 84 85 87 88 81 70 59 48 38 33 34 34 35 39 42 44 43 44 42 34 34 30 28 29 30 33 36 36 32
53 55 56 58 59 61 65 68 73 76 78 82 83 83 84 87 88 81 70 59 50 42 35 32 33 33 36 39 42 44 43 43 39 29 29 26 25 26 27 30 33 33 30
55 57 59 59 61 65 69 73 76 78 80 81 82 84 86 86 81 70 60 51 44 37 32 31 32 33 35 38 42 43 43 43 37 26 26 22 22 24 23 27 30 31 29
58 59 59 61 65 70 73 75 77 79 80 80 82 84 85 78 70 61 53 46 40 33 30 30 30 32 34 37 40 41 42 41 37 27 26 21 19 21 21 22 26 28 25
58 59 62 66 70 72 75 77 79 80 80 81 83 82 74 68 64 56 48 42 36 31 28 27 29 31 33 36 38 39 40 40 36 28 26 24 19 19 21 20 20 22 22
59 62 65 69 72 74 77 79 80 78 79 81 80 71 66 65 58 51 44 38 32 28 27 27 29 31 32 35 36 37 38 38 35 27 25 27 20 18 18 18 18 18 18
64 66 70 72 73 76 79 81 78 78 79 78 70 64 64 61 53 46 39 34 29 27 26 27 28 29 30 32 33 34 36 37 34 29 25 25 23 19 18 17 16 15 14

GFSMW_500_spd_039.txt.gz
Wind_Speed
13 15 16 17 19 19 20 18 25 32 32 42 46 47 47 49 50 51 53 49 46 43 39 38 41 46 50 53 57 59 61 65 67 69 70 71 74 75 76 77 78 80 81
14 15 16 17 20 24 24 25 30 34 38 45 50 51 52 51 51 52 49 46 42 42 46 48 52 56 58 61 63 65 68 69 72 74 77 80 81 80 83 85 86 87 87
18 20 21 22 26 29 32 35 36 37 42 47 48 51 53 56 56 52 52 49 48 49 52 54 56 58 61 63 67 70 73 77 80 83 85 88 89 91 95 97 98 95 93
21 22 22 25 28 30 33 33 35 38 43 48 47 46 55 54 53 50 49 48 51 53 55 57 60 62 66 72 76 79 82 86 89 89 90 94 95 100 106 108 106 101 99
21 22 24 27 26 26 31 35 36 41 48 44 42 52 51 47 48 51 51 53 55 57 59 62 65 69 75 79 83 86 90 93 94 95 97 98 103 110 110 101 91 89 86
19 22 25 27 28 27 34 32 43 35 40 51 51 50 49 48 49 50 53 56 57 61 64 67 72 77 82 86 88 91 94 94 95 96 100 109 109 95 83 76 70 64 60
19 22 24 25 26 33 35 36 42 50 53 52 49 48 48 48 50 53 55 58 61 63 67 72 78 82 86 89 92 93 96 97 98 102 109 105 85 70 62 59 57 54 54
17 19 22 25 28 32 36 39 42 45 46 48 50 50 49 52 54 56 59 61 63 68 72 77 82 86 90 93 94 95 99 102 104 107 92 75 66 54 50 55 56 59 55
15 18 21 23 26 30 33 37 41 43 44 48 49 52 53 54 57 58 60 63 68 72 76 83 86 91 94 95 97 99 101 102 94 79 71 62 49 46 53 57 57 52 38
17 20 23 26 29 32 36 39 42 45 47 49 51 52 55 57 59 61 64 69 74 78 84 89 92 96 96 96 98 101 97 86 72 65 59 51 49 51 53 56 48 49 47
21 23 26 28 30 33 37 39 41 44 47 51 53 55 57 59 61 64 69 75 79 84 89 92 94 94 94 97 99 92 76 62 53 44 40 39 41 44 44 46 49 49 50
26 28 31 33 35 39 41 43 45 47 50 53 56 57 58 60 64 68 74 79 84 89 91 92 93 93 96 97 85 68 53 43 41 42 42 41 42 44 46 46 48 50 48
31 34 38 40 42 43 45 46 47 49 52 54 57 58 59 63 67 73 78 83 87 89 90 91 92 94 93 80 63 48 43 40 42 43 42 42 45 45 47 48 45 45 44
35 37 40 43 45 47 48 49 49 50 54 57 58 59 63 67 72 76 81 85 87 88 89 91 93 91 76 60 46 41 39 40 42 44 44 45 46 47 45 42 40 38 39
38 40 43 46 48 49 50 51 52 54 56 58 59 63 66 71 75 80 84 84 87 88 90 93 90 74 60 47 39 38 38 41 45 46 45 45 47 43 41 39 35 39 41
43 45 47 48 49 50 52 53 55 56 57 59 62 66 70 75 79 82 83 85 87 89 91 88 75 61 49 39 37 37 39 42 46 46 43 44 44 39 36 33 37 38 40
45 48 50 51 51 52 53 55 56 57 59 61 64 69 74 78 79 81 84 86 88 90 86 74 63 51 41 35 36 37 39 42 47 45 43 44 41 37 31 31 34 36 40
49 50 52 52 53 53 55 56 58 59 61 64 68 72 76 78 80 84 85 87 89 84 74 63 53 43 34 34 35 36 39 43 46 44 44 42 35 34 28 30 31 34 38
51 51 52 53 54 55 56 58 59 60 63 67 71 74 77 80 83 83 85 88 82 73 66 55 45 37 32 33 33 35 38 42 43 43 43 37 32 29 25 27 27 32 36
51 52 53 54 56 58 58 58 60 62 66 70 73 75 80 83 82 84 86 80 72 69 59 47 39 31 30 31 31 33 37 41 41 42 39 32 30 26 24 24 25 30 34
52 53 54 56 57 57 57 62 63 66 70 72 75 80 84 83 83 85 81 71 68 64 51 41 34 28 29 29 30 33 37 40 39 38 34 26 28 25 22 23 24 27 31
54 55 56 57 57 59 60 64 68 70 74 76 80 82 84 83 84 81 71 66 66 57 45 36 30 26 27 27 29 32 36 37 37 36 31 24 25 23 20 21 22 25 28
56 56 57 59 62 63 65 70 73 75 78 81 82 83 85 85 80 72 64 64 60 49 39 33 27 25 25 27 28 30 34 35 36 34 31 24 24 24 19 19 21 22 24
58 57 60 64 65 64 68 72 76 78 81 82 84 85 84 78 72 63 61 60 51 41 34 30 25 25 25 26 26 28 31 32 34 33 31 27 24 24 20 18 18 20 20
56 58 64 66 67 68 72 74 80 83 82 83 84 81 77 72 64 59 59 53 43 36 32 27 24 24 24 24 24 26 27 28 31 32 32 29 26 25 23 17 17 17 17
59 61 64 65 69 72 72 80 85 84 83 81 79 77 72 64 59 57 53 45 38 34 29 25 23 22 22 22 23 24 25 26 28 30 31 30 26 23 22 20 17 16 16

GFSMW_500_spd_042.txt.gz
Wind_Speed
14 14 17 19 18 19 21 23 25 29 34 35 36 40 44 46 47 48 49 50 49 46 41 38 38 41 43 47 50 52 55 56 59 63 66 70 72 72 74 75 79 79 80
14 14 15 15 17 20 24 27 30 33 36 38 40 42 45 50 50 48 53 54 52 49 48 49 49 51 52 53 54 56 59 63 68 70 72 75 78 82 85 85 84 86 87
16 17 18 19 20 23 28 30 32 34 36 36 40 45 49 52 51 54 54 52 51 51 53 54 55 55 56 57 59 62 66 69 74 78 80 83 87 89 90 92 94 93 92
19 19 19 19 22 25 28 30 30 32 35 37 43 48 48 50 57 57 52 50 49 51 54 56 58 59 61 63 66 70 74 79 83 86 88 91 92 93 93 94 95 98 101
18 18 18 20 25 28 29 32 34 34 36 41 45 47 53 52 50 51 53 53 53 55 57 60 62 64 65 69 73 77 82 86 89 92 95 96 95 96 98 102 103 101 94
15 17 20 23 22 22 22 22 27 31 35 39 43 46 49 51 52 53 53 55 57 59 62 63 64 66 69 74 79 84 89 92 94 96 97 97 98 99 102 95 87 76 66
14 15 15 14 16 19 22 25 28 31 34 38 42 46 49 52 54 54 57 58 60 62 63 64 66 70 75 79 85 90 93 95 96 97 98 100 102 95 78 70 67 61 49
8 11 14 17 20 23 26 30 32 34 37 40 43 46 49 52 54 55 57 59 60 63 65 67 71 76 81 85 91 94 96 97 97 98 101 95 76 62 55 51 51 48 46
11 14 17 20 23 26 30 33 36 39 41 44 45 47 49 52 55 57 60 61 63 65 68 71 76 81 86 91 93 94 95 96 98 95 81 62 53 47 46 45 44 44 41
16 18 21 24 27 30 34 36 38 41 43 46 47 49 51 53 57 60 61 62 65 68 71 76 81 86 91 92 92 92 95 97 88 73 56 48 46 46 47 46 46 46 48
21 23 25 28 30 33 36 39 41 43 46 48 50 52 55 57 60 61 62 63 67 71 75 81 86 89 91 90 91 94 95 84 69 54 46 43 45 46 46 47 48 46 47
27 29 31 33 35 37 39 42 44 47 49 51 53 55 57 58 60 61 63 66 70 75 81 85 87 88 88 90 93 93 78 64 51 44 43 44 46 47 47 46 46 47 44
32 34 37 39 41 43 45 46 48 49 50 53 55 56 58 60 61 62 66 70 75 80 84 85 86 87 89 92 88 74 62 50 42 42 43 44 47 48 45 45 46 42 41
37 39 41 43 46 47 49 50 51 52 53 55 56 58 60 62 62 65 69 74 78 81 83 85 86 88 90 84 74 62 50 41 40 41 43 45 49 47 44 45 41 39 35
42 44 44 47 49 50 52 53 53 54 55 57 58 60 62 63 64 69 73 78 80 82 86 86 88 89 83 73 64 52 42 37 39 41 43 46 49 45 45 43 37 34 33
46 46 48 50 52 53 53 53 55 56 58 59 60 63 62 64 68 72 77 79 82 85 88 88 88 84 73 66 54 44 37 36 38 40 43 47 46 44 43 35 34 31 32
48 49 51 52 54 54 53 55 57 58 60 61 62 61 66 68 72 74 77 80 84 86 89 87 86 75 69 57 46 38 34 36 37 40 43 46 43 43 39 31 29 30 31
49 51 53 54 54 53 54 56 57 59 61 61 62 64 70 74 75 77 80 83 86 88 89 85 75 68 61 47 38 33 33 34 36 38 43 42 41 40 32 29 25 28 30
51 53 53 53 52 53 54 56 58 59 60 61 62 67 74 77 77 80 83 86 87 89 86 76 67 63 50 40 33 30 32 32 34 38 40 40 39 35 29 28 23 27 28
52 52 51 51 53 55 56 58 58 59 61 62 66 74 81 81 81 83 85 87 90 86 77 66 63 53 42 34 29 29 29 30 33 37 37 37 35 30 28 26 21 25 26
49 49 50 53 54 55 58 57 58 63 65 67 69 75 79 80 83 85 88 88 85 77 66 61 55 44 36 30 27 27 28 29 31 35 34 34 30 26 26 24 21 22 24
49 50 51 52 54 55 57 58 62 67 69 70 75 78 79 83 86 88 87 86 77 66 60 56 46 38 32 28 26 27 28 28 30 31 31 30 28 25 23 23 20 21 22
52 53 53 55 56 57 58 59 66 70 70 72 77 78 83 85 89 86 83 76 67 59 56 49 40 35 30 26 26 27 26 26 29 29 29 28 27 25 23 23 20 19 20
52 54 54 56 56 60 63 67 69 73 75 76 77 82 87 85 82 80 77 68 58 54 51 43 37 32 28 25 24 25 24 25 27 26 26 28 27 26 24 21 21 18 18
53 53 57 58 59 63 67 72 76 79 79 76 78 84 87 82 79 74 68 59 53 49 45 39 34 30 27 24 23 23 23 24 25 25 25 25 28 28 25 22 20 19 17
53 56 58 60 63 64 72 77 81 78 76 77 78 82 80 78 72 66 58 51 49 45 41 36 32 29 25 24 23 23 24 24 24 24 24 24 26 28 28 25 21 19 17

GFSMW_500_spd_045.txt.gz
Wind_Speed
11 13 13 15 17 18 20 23 26 28 30 32 35 37 38 37 39 43 45 43 48 53 51 48 45 43 43 44 47 51 53 52 52 53 55 57 60 65 69 72 74 75 78
14 14 14 15 16 19 23 26 28 31 33 34 36 38 40 42 45 47 48 53 52 49 49 50 49 48 48 50 52 54 55 55 58 61 64 67 69 73 78 81 84 86 86
15 16 18 19 21 22 24 26 28 30 30 32 35 37 38 40 44 48 53 52 52 52 52 51 50 52 54 56 58 59 61 62 65 69 72 75 78 81 85 86 88 90 93
20 22 22 22 23 24 26 27 27 26 26 28 30 32 35 39 41 44 47 50 52 54 54 55 57 59 60 62 63 65 67 69 72 75 80 84 88 90 92 94 97 98 100
25 25 24 22 23 23 20 20 20 21 24 28 30 32 36 39 42 45 49 51 55 56 56 57 59 61 62 64 65 68 71 74 79 83 88 92 96 99 101 102 104 106 101
25 23 22 22 19 15 16 19 21 24 27 30 33 36 40 44 46 49 52 54 56 58 60 61 62 62 64 66 69 73 77 82 87 92 96 97 99 99 101 102 98 90 73
20 19 16 14 14 16 19 22 25 28 30 33 36 40 43 47 49 52 55 57 58 59 62 64 64 65 67 71 74 78 83 89 93 95 95 97 97 99 94 83 72 63 53
11 11 12 14 17 20 23 26 29 32 34 37 40 43 46 49 51 53 55 57 58 60 63 64 65 67 70 74 79 84 88 91 92 93 94 95 95 86 74 62 56 52 51
12 15 17 20 22 25 28 31 34 35 38 41 44 46 49 51 53 55 56 58 60 62 65 66 67 70 74 79 84 88 90 91 94 93 93 88 79 70 59 52 50 53 52
19 22 24 27 29 32 34 37 40 41 43 46 48 49 51 54 56 57 58 60 62 64 67 67 70 74 78 83 86 88 92 94 91 90 84 74 65 55 50 49 50 52 54
24 27 30 32 36 39 41 43 45 46 48 50 52 53 55 57 58 59 61 62 64 66 67 70 74 78 82 85 88 89 91 91 89 79 71 63 53 47 47 48 49 52 52
28 31 34 36 39 42 45 46 47 50 53 55 56 58 58 59 60 61 61 64 65 67 70 73 77 80 83 86 87 88 91 88 77 70 62 51 46 45 46 48 51 54 49
33 35 39 41 44 46 47 48 50 53 54 55 55 58 60 60 61 62 63 65 66 69 73 77 78 80 84 87 89 92 90 77 70 61 51 43 43 44 46 49 53 50 47
39 41 44 46 47 49 50 51 53 54 54 56 57 58 59 61 61 63 64 66 70 74 78 78 80 84 85 87 92 92 81 71 62 51 42 40 42 44 47 50 50 47 45
45 47 49 50 50 52 53 54 54 55 54 55 56 58 60 62 62 63 65 69 75 79 79 80 83 86 87 89 93 86 72 65 52 42 38 40 42 44 47 51 47 45 37
49 50 51 52 53 53 54 55 54 54 54 56 58 60 61 62 60 64 66 72 77 81 86 84 85 86 90 93 88 75 67 53 42 36 37 39 42 44 48 44 43 38 33
50 52 52 52 52 54 55 54 53 54 55 58 58 60 60 61 66 67 69 72 77 84 85 86 88 89 93 89 75 67 56 43 36 34 36 38 42 45 45 42 38 31 33
51 51 51 51 53 54 54 53 53 54 56 58 60 58 61 66 72 72 72 75 80 82 83 85 89 93 93 76 66 57 44 36 33 34 35 37 41 43 41 39 34 32 30
51 51 51 52 53 53 52 53 55 56 57 56 55 62 67 72 76 78 76 77 80 80 82 83 90 91 82 65 58 46 37 32 32 32 34 36 41 40 40 36 31 31 27
50 51 51 51 52 52 54 55 55 55 55 57 59 63 66 72 78 82 80 79 78 81 83 84 82 84 67 57 47 39 33 30 31 32 34 34 37 37 36 33 30 29 25
49 49 49 51 52 53 53 53 56 58 60 66 68 72 73 76 77 79 80 79 82 80 80 78 75 70 58 51 40 35 31 28 30 30 31 34 34 35 33 30 27 27 24
48 50 52 53 53 53 54 55 57 57 62 72 75 79 77 77 78 78 78 81 79 75 74 71 67 58 52 44 37 33 29 28 28 28 29 30 31 31 31 29 26 24 23
51 51 52 52 53 54 56 58 59 62 69 77 82 78 76 75 76 80 82 78 71 70 72 65 57 52 46 40 34 31 28 27 28 27 27 28 28 29 30 28 27 25 24
53 53 53 53 55 56 60 61 62 63 73 82 82 79 80 81 81 82 75 70 69 68 61 55 52 48 42 37 33 29 28 27 26 26 26 27 27 26 28 28 26 24 22
53 53 54 56 56 58 63 64 64 67 72 78 82 82 83 83 79 75 75 70 64 58 54 51 48 43 39 35 32 29 26 26 26 26 26 26 26 25 26 28 28 26 23
54 56 57 59 60 61 64 67 72 75 77 79 83 84 81 78 77 76 70 64 56 53 50 48 46 40 37 34 31 29 27 26 26 26 26 25 25 24 25 26 28 28 25

GFSMW_500_spd_048.txt.gz
Wind_Speed
7 7 9 12 12 14 16 19 21 23 25 28 28 29 29 30 32 33 33 34 36 38 40 43 45 45 47 48 47 48 49 49 51 52 53 54 56 58 60 63 67 70 72
9 10 12 15 17 15 16 20 23 26 26 27 25 25 25 27 30 33 36 39 42 43 45 47 49 50 50 52 53 53 53 54 54 56 57 58 58 61 66 70 74 77 80
12 14 16 18 20 22 21 23 24 24 23 21 21 24 27 30 32 35 39 42 45 46 47 48 49 51 53 54 55 55 55 54 56 59 62 63 65 68 73 78 82 85 87
20 19 23 21 24 25 25 25 22 21 20 21 24 28 31 34 37 39 40 43 46 48 50 52 53 54 56 57 58 57 57 60 62 65 69 73 77 81 81 84 87 90 96
28 25 28 25 26 24 23 18 18 19 22 25 28 33 35 38 41 45 47 50 51 51 52 52 53 55 57 58 59 59 60 64 68 72 76 80 84 88 90 89 96 100 98
30 30 29 22 19 19 16 17 19 20 24 28 32 35 38 41 44 46 49 51 53 56 58 60 60 61 62 63 63 64 67 70 74 79 83 87 91 93 98 102 101 94 83
22 21 18 15 12 14 17 21 24 26 29 33 37 39 42 45 48 50 52 54 56 58 60 61 62 63 64 65 65 67 72 77 82 87 90 92 95 98 99 97 86 77 68
13 11 11 12 16 19 23 26 30 33 34 39 41 44 47 50 52 53 54 55 57 59 61 61 62 64 65 65 68 72 78 83 86 88 90 92 94 95 88 79 71 65 57
13 15 18 21 23 26 29 33 38 39 41 44 47 49 52 54 57 59 59 58 60 61 62 63 64 66 66 69 73 78 83 85 86 89 92 93 95 87 77 67 60 55 51
19 22 24 26 29 30 34 36 42 45 44 46 49 52 54 56 57 60 58 60 62 62 62 63 64 65 68 72 77 82 82 85 87 90 93 94 85 75 66 57 50 47 50
24 26 29 30 32 36 39 39 44 48 50 50 51 54 56 56 56 56 56 61 62 62 63 63 64 67 71 76 81 83 87 85 86 91 96 91 77 67 57 48 44 45 49
27 29 33 36 37 39 45 47 48 51 53 53 53 56 57 57 57 52 62 64 62 63 63 64 67 70 75 78 81 87 85 86 89 92 89 79 71 58 47 42 43 46 48
32 35 37 41 44 47 48 51 50 51 52 52 54 56 57 56 55 56 59 62 63 64 64 68 71 74 76 79 84 82 82 88 89 86 75 68 60 46 39 40 43 46 49
36 41 45 47 49 51 51 52 53 51 52 53 55 57 55 57 58 59 62 63 64 66 69 74 78 80 80 81 82 83 86 88 83 73 65 57 48 39 37 40 43 46 51
44 45 49 50 52 52 52 52 53 53 54 54 56 55 57 57 56 63 63 62 65 71 76 81 83 83 82 81 82 84 87 83 71 64 55 47 41 36 37 41 43 49 47
48 49 50 51 53 54 54 53 54 55 56 55 55 56 59 59 62 62 60 64 70 77 84 86 86 81 80 80 82 83 80 71 62 56 46 40 36 36 37 40 44 44 42
47 51 52 54 56 57 58 56 56 56 55 54 56 58 58 61 61 63 66 70 68 75 82 87 82 79 81 80 76 79 71 60 56 49 40 35 34 34 38 43 44 42 40
50 52 55 56 57 57 57 56 54 55 55 56 57 58 59 60 63 73 79 78 82 84 83 81 80 82 85 75 68 69 64 58 51 42 35 31 33 34 38 41 40 39 37
53 55 56 54 54 54 53 52 55 57 57 58 58 58 60 59 62 75 85 87 89 78 74 79 86 79 73 67 63 63 58 51 42 36 31 29 32 35 37 38 38 37 35
54 53 50 50 51 52 52 54 56 57 58 58 58 62 65 62 73 80 87 90 76 78 82 88 81 73 70 66 61 57 52 44 36 33 29 28 31 32 35 34 35 34 32
50 49 49 50 52 53 54 55 56 57 57 58 57 65 66 67 71 76 85 87 87 89 85 79 73 68 63 60 54 51 46 38 32 29 28 27 28 30 32 32 33 33 30
49 50 51 52 53 55 55 54 55 56 56 60 67 71 72 78 79 78 80 83 83 79 77 73 68 61 56 52 49 45 41 35 30 28 27 28 27 29 30 30 30 32 31
51 52 53 54 55 54 55 57 58 60 61 62 68 76 82 77 76 82 83 82 78 75 72 68 62 56 51 49 46 40 37 33 30 26 26 26 26 28 28 28 28 31 32
51 53 54 54 55 57 58 61 63 62 62 66 70 73 74 78 81 82 74 74 74 73 70 63 56 51 48 47 44 37 33 32 30 27 25 26 26 26 26 27 27 28 29
53 53 54 56 58 61 63 64 65 67 67 68 71 74 77 79 74 72 71 73 74 71 63 57 51 47 45 43 41 35 32 29 28 28 26 26 26 26 25 25 25 26 27
52 54 57 59 62 64 67 69 69 68 68 69 71 73 71 70 70 69 69 74 71 64 57 53 50 48 45 42 40 33 31 30 29 26 26 27 26 26 25 24 24 24 25

GFSMW_500_spd_051.txt.gz
Wind_Speed
2 3 5 2 4 9 11 12 16 17 20 18 18 20 19 19 21 25 26 29 31 33 36 38 39 40 42 45 48 48 49 50 49 48 46 45 44 45 48 51 54 58 63
9 10 12 10 8 9 16 16 20 22 18 17 14 15 17 21 24 27 29 33 36 38 41 43 44 45 48 50 51 51 51 53 53 52 49 46 46 50 54 58 63 69 72
9 14 16 19 17 17 19 18 20 19 14 14 15 19 21 24 27 30 32 36 39 42 45 47 47 49 50 52 53 53 54 55 55 54 53 54 56 58 61 65 69 75 78
11 14 18 23 23 23 19 20 15 12 13 16 19 23 25 28 31 35 37 41 44 46 48 49 49 50 52 54 54 54 55 57 55 55 58 62 66 71 73 77 80 84 85
13 13 16 21 24 23 17 12 13 14 18 20 24 28 31 34 37 40 43 45 49 51 52 53 51 51 52 53 54 54 57 56 57 60 64 69 74 78 81 83 87 89 91
19 16 13 13 15 19 17 15 17 19 24 27 30 34 37 42 45 48 50 53 55 56 57 58 58 58 59 61 62 62 61 60 63 67 70 76 80 83 88 92 93 94 98
17 16 12 8 8 13 15 18 21 23 28 33 35 39 43 46 49 52 54 55 56 57 58 60 59 62 62 63 64 64 63 64 68 72 76 80 84 88 92 96 98 98 93
12 11 10 9 12 16 21 25 27 28 31 36 39 42 46 49 52 55 55 57 57 58 59 59 59 63 65 65 65 64 64 67 72 76 79 82 87 91 95 96 97 91 81
13 14 15 16 19 21 25 29 32 33 36 38 40 44 47 49 52 52 54 56 56 57 50 57 67 68 70 68 65 64 68 73 77 80 82 84 87 90 93 90 83 74 67
17 19 20 22 24 26 29 33 36 39 42 43 43 47 49 51 52 53 55 56 58 57 54 57 64 67 69 68 66 70 75 80 83 84 84 86 86 89 89 77 68 61 55
21 24 26 27 28 30 31 35 40 44 47 48 47 49 49 50 53 56 58 60 54 60 58 59 64 67 67 68 71 76 80 86 89 88 85 86 88 85 76 65 58 51 44
24 27 30 33 34 36 39 40 41 44 44 45 45 47 48 51 56 59 60 60 61 62 59 61 70 67 68 73 77 82 85 89 90 82 85 85 83 74 64 56 47 40 39
29 30 34 37 40 43 43 42 46 49 46 46 52 56 55 57 58 59 59 59 62 63 64 67 67 67 71 74 76 82 88 84 78 85 84 81 72 62 53 43 39 35 38
34 37 39 41 44 36 36 41 44 45 51 53 56 55 55 55 55 57 58 60 61 59 71 68 72 80 86 83 82 83 84 81 87 82 77 70 59 53 43 37 34 34 37
40 43 44 43 31 36 39 44 49 53 54 56 55 53 54 55 56 58 60 61 60 62 66 67 74 83 84 82 85 83 82 88 81 73 67 59 53 44 38 33 32 34 38
45 46 48 42 38 33 53 51 54 55 55 55 54 55 56 57 59 60 61 61 62 64 67 75 82 85 87 88 83 84 85 78 69 62 57 52 47 39 35 30 31 35 38
44 46 47 48 50 51 53 54 54 53 53 53 54 55 56 57 59 59 61 66 70 72 72 79 83 84 84 79 85 84 77 71 61 56 51 47 41 35 31 30 32 36 38
43 44 46 49 51 52 54 53 53 54 55 56 57 57 57 57 58 59 62 69 75 79 83 86 85 81 83 82 75 71 65 60 55 52 48 42 35 32 28 28 30 34 35
45 48 50 52 52 51 50 52 54 55 56 56 56 56 58 61 63 64 69 74 81 83 80 78 80 81 74 71 67 62 59 54 50 48 44 37 32 29 26 27 28 32 33
47 49 49 49 49 51 52 52 53 54 55 56 56 56 62 62 65 67 69 74 77 76 79 83 77 71 69 69 65 59 54 50 47 45 39 33 30 27 25 25 27 29 30
47 47 47 48 49 50 51 53 55 55 56 56 59 59 61 63 67 71 73 74 76 80 77 73 69 68 71 67 60 53 49 46 43 40 35 30 28 25 24 24 26 28 28
49 50 50 50 51 52 54 55 55 56 58 60 61 64 69 70 71 72 74 77 77 72 69 68 68 72 71 62 54 49 46 44 41 36 32 30 26 24 23 24 25 26 27
48 50 51 52 54 55 54 55 57 60 63 64 65 70 72 74 73 73 74 72 69 67 66 67 70 73 67 57 51 47 44 42 38 33 29 28 26 23 23 23 24 25 26
51 52 53 53 53 54 56 59 62 64 64 63 68 72 74 73 71 70 66 67 66 67 68 70 73 72 64 55 48 45 42 40 36 30 29 27 26 24 23 24 24 24 24
52 53 53 54 56 58 61 63 62 61 63 66 69 71 71 69 67 66 65 65 67 70 72 74 75 69 57 51 47 43 39 37 35 26 28 27 25 24 23 23 24 24 23
52 53 56 58 61 63 63 61 61 63 66 69 70 69 67 67 67 66 66 67 69 71 75 77 71 59 53 49 45 41 38 36 33 25 25 23 24 24 24 24 24 23 23

GFSMW_500_spd_054.txt.gz
Wind_Speed
7 6 5 2 4 4 4 7 9 10 13 14 13 14 15 12 15 17 19 23 26 28 31 34 37 40 42 43 44 45 48 50 50 50 50 50 51 51 48 46 49 52 55
4 5 6 4 4 8 10 11 14 14 14 14 12 12 12 16 19 22 25 28 31 34 36 39 42 43 46 48 50 51 52 53 53 54 54 53 52 49 49 51 54 58 63
4 3 3 2 3 7 11 14 14 14 13 11 12 15 16 20 24 27 30 33 37 40 43 45 47 49 51 53 54 54 54 55 55 56 58 58 58 53 52 56 60 64 67
9 6 6 8 8 8 11 12 11 11 12 14 16 19 22 25 29 32 35 38 42 45 46 48 50 51 51 53 55 55 55 56 57 58 58 59 56 57 60 63 67 70 73
5 7 8 8 10 10 9 8 9 11 12 17 21 24 27 30 34 37 40 44 46 48 48 49 51 53 55 55 54 53 56 61 64 63 63 59 59 63 67 69 73 78 82
3 6 4 6 8 9 8 8 10 14 19 22 26 29 32 36 39 41 44 46 48 50 52 53 54 55 56 58 56 57 65 67 70 68 65 62 66 69 73 76 78 81 86
3 4 4 5 5 7 10 13 16 20 24 27 29 31 36 40 43 45 48 49 52 54 55 57 58 59 62 61 59 63 67 69 70 69 65 68 72 76 79 83 86 89 90
5 5 5 8 10 12 16 18 20 24 27 30 33 36 41 46 49 50 51 53 55 56 59 61 59 64 63 64 64 66 67 70 71 69 71 74 78 82 85 89 90 86 87
9 8 9 12 13 18 22 24 26 29 32 35 38 41 44 48 50 53 52 56 51 43 63 59 65 65 63 66 67 66 70 73 69 72 79 84 86 86 89 87 87 92 92
11 12 14 17 20 23 26 30 33 36 38 40 41 42 44 47 49 47 46 50 50 54 65 63 63 61 64 68 65 69 73 71 75 80 84 88 86 87 85 88 89 85 79
14 16 18 19 21 25 29 34 38 42 44 44 44 48 43 46 45 49 47 54 47 60 61 63 66 64 67 67 65 73 78 75 77 82 87 88 86 80 86 86 81 74 70
20 22 23 24 26 29 34 38 42 42 38 37 43 46 45 51 53 51 52 58 55 63 55 67 66 68 68 69 72 74 76 79 83 85 87 83 82 84 80 76 70 65 62
25 27 28 31 32 34 36 38 34 34 37 39 41 49 52 55 52 53 55 55 56 61 63 64 66 68 70 71 75 79 85 87 87 84 80 84 79 76 70 66 63 59 51
26 28 31 33 34 35 34 37 36 39 40 45 47 51 54 49 54 55 56 59 61 62 62 64 66 70 73 78 83 87 86 79 78 81 82 74 69 65 60 59 55 49 42
30 32 33 34 34 36 36 36 40 43 45 47 54 51 57 56 56 57 60 61 61 62 65 67 69 73 77 80 84 82 79 81 82 77 72 66 63 58 55 52 47 41 36
35 37 38 37 33 39 40 37 39 43 45 55 55 55 54 56 56 58 60 61 62 65 67 70 73 76 79 80 80 81 82 75 70 67 65 61 56 53 51 46 40 36 33
37 40 42 44 45 45 36 36 41 51 51 52 53 54 56 57 58 58 58 59 67 70 71 75 78 80 79 79 80 75 71 70 69 65 59 56 51 49 46 40 35 33 32
37 39 40 42 45 47 49 50 50 50 50 52 54 56 58 59 58 60 62 64 66 72 75 78 78 77 80 79 75 72 69 67 67 60 54 51 48 45 42 36 32 31 31
37 39 42 45 48 50 49 48 49 51 52 52 55 57 57 58 60 61 66 69 71 75 78 77 78 80 74 72 66 65 66 69 63 55 50 47 45 41 38 33 30 30 30
39 42 45 47 46 46 47 49 50 51 52 54 55 57 59 60 65 68 68 68 73 78 80 78 75 68 64 63 63 66 68 69 59 51 48 45 41 38 35 31 29 28 28
42 45 46 45 47 48 49 50 51 52 53 54 57 58 62 64 66 65 67 72 77 80 77 74 69 65 64 64 66 69 71 65 54 48 45 42 38 36 32 29 28 27 27
45 47 47 48 48 49 50 51 52 53 55 58 62 64 63 64 66 68 71 74 76 75 71 70 65 65 66 67 69 73 70 58 50 45 43 40 35 33 30 29 27 27 26
47 47 48 48 49 50 51 52 54 57 60 62 62 62 64 67 70 72 74 75 73 70 69 67 67 65 68 70 73 74 64 53 47 43 41 38 34 31 29 28 27 26 25
48 48 49 49 50 51 53 55 58 62 62 63 64 65 67 71 74 76 75 73 70 69 68 69 69 67 68 72 75 72 59 50 46 41 38 36 34 29 27 27 26 26 25
49 50 51 51 52 54 56 59 62 63 63 64 65 68 72 74 75 75 73 71 70 72 70 69 71 72 72 74 76 67 54 47 44 39 36 34 33 29 25 25 25 25 24
51 51 51 53 55 57 60 63 62 63 64 66 69 73 75 76 76 73 70 70 70 70 71 72 75 76 78 78 71 60 50 45 41 36 34 34 31 29 26 24 24 23 23

GFSMW_500_spd_057.txt.gz
Wind_Speed
7 6 5 5 5 5 5 2 1 4 6 8 10 12 12 11 11 14 18 20 23 26 29 32 35 38 40 43 45 47 48 48 49 51 51 51 49 49 52 53 55 54 51
8 8 6 4 3 3 3 3 5 6 9 8 10 10 10 11 15 17 21 25 28 32 34 37 40 42 44 47 49 50 51 52 55 54 52 51 52 56 58 59 57 53 53
5 4 5 4 4 5 6 6 7 9 9 8 8 9 12 15 19 22 27 30 34 37 39 42 44 46 48 50 52 54 54 54 55 54 56 58 59 62 63 59 57 55 58
7 5 5 7 7 7 11 12 11 9 8 8 11 14 17 20 25 28 32 35 38 41 44 47 48 50 50 49 51 54 56 59 58 59 59 61 65 66 62 62 58 60 65
9 7 8 10 8 8 11 10 10 9 10 13 15 17 23 26 30 33 36 38 43 45 47 48 49 51 49 46 53 54 58 63 61 61 61 64 66 67 68 63 61 64 71
10 9 8 11 12 10 9 8 9 10 13 16 19 23 27 31 35 38 40 44 46 48 48 45 47 51 47 50 57 62 64 65 63 63 67 67 66 69 71 69 70 75 76
8 7 7 8 8 8 9 10 11 15 17 20 24 27 31 36 40 42 45 47 46 48 45 45 51 46 55 60 66 70 65 67 68 69 71 72 74 75 78 80 82 83 83
6 6 6 6 7 10 12 14 16 18 21 24 28 31 36 41 44 45 47 48 48 47 50 44 56 59 60 65 69 75 69 76 76 75 74 75 78 80 80 83 85 85 85
8 8 8 9 11 13 15 18 21 23 26 30 34 38 42 45 46 47 49 47 53 55 51 49 64 56 65 68 70 70 76 79 76 75 76 78 80 82 87 90 89 84 82
10 10 10 12 14 16 19 22 25 29 32 37 41 44 47 45 45 50 48 47 46 51 53 62 58 59 71 66 76 74 75 76 77 77 79 81 85 88 87 85 81 85 91
13 12 13 16 18 19 23 27 31 35 39 43 44 39 40 46 49 53 47 51 54 49 63 59 59 62 66 71 74 74 75 78 81 84 85 87 89 89 85 85 91 88 81
20 19 20 22 23 24 28 32 36 40 43 39 39 40 45 46 47 46 51 61 56 60 59 61 62 64 68 70 73 75 78 82 84 86 88 88 86 85 89 90 83 74 71
23 25 27 26 26 31 34 34 37 37 38 40 40 38 42 47 51 55 56 56 59 60 62 62 65 66 68 71 74 79 81 84 88 88 85 87 91 89 84 75 69 66 63
24 25 26 29 32 32 33 34 36 37 38 38 36 42 44 48 52 57 60 60 60 61 63 65 66 69 71 76 81 83 86 87 84 86 88 85 79 72 68 66 63 60 55
26 27 29 31 32 32 33 32 36 36 36 37 41 42 51 56 58 57 58 60 61 63 64 66 69 73 76 78 80 83 88 88 86 80 78 73 65 67 65 61 58 54 51
27 30 33 33 33 32 33 36 36 38 35 37 45 54 53 52 57 56 59 63 64 64 64 70 71 76 81 82 84 87 91 83 79 73 66 65 68 67 60 56 53 50 48
30 32 34 36 35 36 39 42 43 44 42 44 50 50 52 54 56 59 61 62 63 66 64 73 77 78 79 82 86 89 81 76 70 64 63 67 71 64 56 53 51 48 45
32 34 36 36 37 40 43 44 46 48 48 47 48 51 53 56 58 59 61 63 65 68 71 74 75 76 79 82 82 79 74 69 64 64 66 70 70 59 52 50 48 45 42
33 35 35 37 40 41 44 46 46 46 46 48 50 53 54 56 58 60 64 66 67 68 70 73 75 77 78 79 77 73 71 67 64 66 68 71 65 54 49 48 46 42 39
34 36 38 40 43 45 46 47 47 47 48 50 52 53 55 56 60 64 65 65 66 69 72 74 77 76 74 73 72 70 70 67 65 66 70 71 59 51 47 45 43 39 37
36 38 40 42 44 45 46 46 47 48 50 51 52 54 57 61 63 64 65 67 69 72 74 76 75 75 73 71 69 71 69 67 66 68 71 67 55 48 45 43 41 37 34
38 40 42 44 45 45 46 47 48 49 50 52 54 57 61 62 63 65 67 70 73 75 75 76 77 75 73 73 71 70 69 68 69 70 70 62 50 45 43 40 39 35 33
39 42 44 46 47 47 48 49 49 50 53 55 58 61 62 63 66 68 71 74 76 76 78 79 78 76 73 73 70 70 71 72 73 72 65 56 47 43 40 38 37 33 32
43 45 47 47 48 49 50 50 51 54 56 59 62 63 64 67 69 72 74 76 77 79 80 80 78 75 69 68 71 74 76 76 75 68 59 50 44 42 38 36 34 32 30
47 48 49 49 50 51 51 52 54 57 60 62 63 65 67 70 71 73 76 77 77 79 80 77 75 73 72 73 77 78 80 78 68 60 53 45 42 40 36 34 32 30 28
49 49 49 50 51 52 53 55 58 61 63 64 65 67 69 72 74 76 77 78 80 79 76 75 78 80 82 81 81 78 71 69 59 53 48 42 40 37 35 33 32 30 28

GFSMW_500_spd_060.txt.gz
Wind_Speed
10 10 11 11 12 10 10 10 9 10 11 10 9 9 10 10 9 10 14 15 17 21 24 26 31 35 39 43 45 46 47 48 48 48 51 51 52 53 52 52 54 55 57
7 9 11 12 11 11 10 9 8 8 9 9 10 9 9 9 11 14 18 18 22 26 29 32 35 39 44 46 46 48 51 51 48 48 51 54 56 56 57 57 58 60 61
9 10 10 10 10 10 10 10 10 11 11 10 11 9 8 11 15 18 21 24 27 30 34 36 39 43 46 48 48 49 54 52 50 51 56 60 61 60 61 63 64 65 64
8 8 10 11 11 11 12 13 13 14 13 12 12 11 13 15 17 22 25 29 31 35 38 40 42 44 46 49 49 52 48 49 55 61 64 67 71 66 66 68 68 66 67
15 13 11 11 12 12 14 15 14 14 13 13 14 14 17 19 22 26 30 33 36 40 42 43 45 46 48 46 48 52 50 59 63 66 69 73 73 72 74 70 71 71 73
18 18 15 16 18 16 16 16 13 13 12 12 14 19 20 22 26 31 35 38 42 45 45 48 48 46 49 43 40 55 65 61 62 69 72 73 76 75 75 75 76 78 79
18 22 20 20 19 16 16 15 13 15 14 15 18 20 24 26 31 37 41 43 45 44 48 47 52 49 50 49 53 64 64 62 66 72 71 76 77 78 79 81 83 84 85
17 20 18 16 16 15 13 14 17 21 15 16 21 24 29 32 38 42 46 45 44 46 51 49 51 50 54 56 60 67 64 69 72 74 75 76 78 80 83 86 89 90 90
17 15 13 14 15 15 15 17 19 20 17 21 26 29 33 37 42 44 42 44 48 51 56 53 52 58 53 61 69 67 67 69 71 74 75 78 81 85 88 91 91 91 92
17 15 13 13 15 16 16 19 21 21 23 27 32 35 39 42 40 37 41 46 52 56 56 58 58 62 61 66 66 67 68 72 73 74 77 82 86 87 89 94 93 90 88
20 17 16 18 17 17 20 24 26 26 29 33 37 39 40 39 43 41 43 51 47 56 59 47 61 70 70 67 68 67 68 72 74 79 83 84 87 89 92 94 86 81 78
23 22 22 22 22 24 27 30 32 31 35 38 40 38 40 41 44 50 49 46 53 54 47 67 69 67 69 69 68 69 72 76 78 81 86 87 88 92 91 83 76 72 72
26 25 26 26 28 31 32 32 34 37 37 39 41 42 40 42 48 47 51 52 56 62 66 66 67 67 68 68 70 72 77 78 85 86 85 87 90 85 81 73 70 70 71
24 25 27 28 30 32 34 35 34 37 38 40 40 42 44 49 42 47 53 61 63 63 65 64 68 68 68 70 73 74 75 83 85 83 84 85 83 79 71 67 70 70 69
24 23 26 28 30 31 33 34 35 35 36 37 40 40 41 39 42 53 61 56 64 63 64 66 66 68 72 73 75 78 80 80 81 82 82 83 79 73 65 66 69 71 65
25 26 27 29 29 30 33 35 34 35 36 39 40 44 44 41 48 56 55 57 61 63 63 64 65 72 73 74 75 77 79 81 81 81 79 77 75 69 65 67 69 70 61
30 30 29 30 33 34 34 33 35 38 40 42 45 46 46 48 51 53 56 59 59 63 63 66 69 71 72 74 76 78 79 80 80 77 75 72 73 67 65 67 69 66 56
29 29 31 32 33 33 34 37 40 42 44 46 47 48 48 50 53 55 56 58 60 62 63 69 70 72 74 76 78 80 81 80 76 74 75 72 68 66 66 68 68 61 52
29 30 31 32 32 35 37 39 41 44 46 47 48 49 51 52 54 55 58 60 62 64 66 69 71 74 76 79 80 81 80 77 74 74 73 70 66 68 69 69 66 56 49
29 30 30 32 34 36 39 41 43 45 47 48 49 51 52 54 55 57 59 62 64 66 68 70 74 76 78 80 81 79 79 78 75 72 70 70 69 70 70 69 62 50 47
29 30 32 34 36 39 41 44 46 47 49 50 51 52 53 54 57 59 62 65 66 68 71 74 76 78 79 79 79 79 80 77 74 70 68 72 73 72 71 65 54 47 43
30 32 34 36 39 41 44 46 47 49 50 51 52 53 54 56 59 62 65 67 68 71 74 77 77 79 80 82 82 80 79 76 76 73 73 75 76 73 66 55 48 44 40
33 34 37 39 41 44 46 49 51 51 52 53 53 54 57 60 63 65 67 69 72 75 77 80 82 83 85 85 81 78 77 78 80 80 79 76 71 64 54 48 45 42 37
37 38 40 42 45 48 50 51 52 53 53 53 55 57 60 64 66 67 69 72 76 79 81 83 86 87 88 84 77 74 77 82 83 80 73 68 60 55 45 45 43 40 35
41 43 44 47 50 51 53 53 54 54 54 56 58 61 65 66 67 68 71 74 77 80 83 86 89 90 86 82 82 83 80 75 71 68 63 59 49 52 46 44 42 38 35
45 46 49 51 53 53 53 54 55 55 57 58 62 66 67 68 69 70 72 75 78 81 84 86 85 84 86 87 82 76 72 67 57 52 50 47 50 53 46 43 39 35 33

GFSMW_500_spd_063.txt.gz
Wind_Speed
10 12 13 14 15 13 13 14 13 14 15 15 14 14 14 12 12 14 13 13 14 15 19 22 26 28 32 35 37 39 41 46 48 48 48 45 47 51 56 60 62 61 59
10 11 12 13 14 15 15 15 15 15 13 14 15 15 13 13 13 14 13 14 16 19 23 27 29 31 36 39 40 42 44 48 48 46 49 51 54 55 54 58 63 64 63
10 12 13 13 14 15 15 14 13 13 14 15 15 16 16 14 15 15 15 17 20 23 27 30 32 36 38 41 41 46 47 48 48 50 52 58 63 59 58 61 65 66 67
8 9 11 13 13 13 14 15 16 16 15 17 17 17 17 15 16 18 19 22 23 26 30 34 37 40 41 44 43 46 47 50 46 49 57 63 64 60 63 69 68 68 69
13 14 14 16 15 16 16 17 17 16 17 16 19 18 16 18 21 23 24 26 28 32 35 40 43 43 42 43 47 46 50 52 51 54 63 68 65 64 67 67 68 70 74
19 19 19 18 16 18 17 18 16 14 16 16 17 19 20 22 25 23 25 29 33 37 41 42 42 42 45 48 50 53 53 57 54 63 69 69 67 67 68 69 72 75 79
24 23 23 23 22 20 19 20 17 16 18 21 22 24 25 26 22 25 28 32 33 41 40 41 43 45 50 54 56 57 58 59 62 68 67 68 69 69 71 74 78 80 84
20 22 25 26 24 23 21 18 18 17 20 26 27 23 22 21 27 29 34 33 41 40 42 44 46 51 52 56 59 56 57 70 67 68 68 69 71 73 76 80 82 85 84
19 23 24 23 22 19 17 16 18 18 22 27 27 23 26 29 32 33 33 38 38 42 46 47 51 45 55 65 63 58 69 69 69 69 70 71 74 78 79 80 87 86 85
16 17 19 20 20 20 20 19 20 21 23 27 28 29 30 32 34 34 32 36 41 44 46 50 44 49 52 62 62 68 71 72 72 72 73 75 77 79 82 84 84 85 86
19 20 21 22 21 21 21 21 24 26 28 31 32 33 36 37 37 33 32 37 44 49 50 49 52 58 64 68 68 71 70 71 72 74 77 77 79 82 82 84 84 85 85
21 22 24 24 24 24 25 28 28 31 32 34 35 37 38 37 35 36 42 45 49 56 47 48 47 63 63 61 69 71 71 72 75 77 78 78 79 81 82 84 85 83 80
23 22 24 28 30 30 31 32 34 34 34 36 38 36 35 34 38 40 40 45 51 49 55 59 62 61 64 75 73 71 71 73 77 79 79 79 81 82 83 83 80 78 76
26 28 27 31 33 36 38 36 36 35 36 36 36 35 36 37 39 39 46 47 52 57 65 65 53 66 74 74 72 71 73 78 80 79 79 81 82 82 82 79 76 75 72
24 24 25 30 31 31 32 34 34 33 34 35 35 35 36 40 41 44 45 45 45 56 66 69 66 67 68 70 73 73 75 79 79 80 81 82 83 82 80 77 75 72 68
28 28 27 26 29 29 29 30 32 33 34 33 34 37 39 41 44 46 48 48 49 54 58 63 65 64 68 71 73 75 76 78 79 80 82 83 83 81 78 76 72 68 65
31 30 31 31 31 30 31 32 34 34 33 35 37 39 42 45 47 50 51 53 55 58 58 61 64 67 71 73 75 75 78 79 80 82 84 85 84 81 77 73 67 64 66
30 30 29 30 31 31 32 33 33 33 35 38 40 42 46 49 51 52 55 55 57 58 60 63 66 69 73 74 75 78 80 82 83 85 87 87 84 78 74 68 66 68 70
29 28 28 28 29 30 30 31 34 36 38 40 43 46 49 51 53 54 55 57 58 60 63 66 68 71 73 75 78 81 83 85 85 87 88 85 79 73 72 71 70 73 73
25 26 27 28 29 30 32 34 35 37 40 43 46 48 51 53 54 56 57 58 60 62 65 67 70 72 74 77 80 83 86 88 89 90 86 79 75 74 76 76 76 75 72
27 27 26 28 30 31 33 35 38 40 43 46 49 52 53 55 56 57 58 59 62 64 67 70 72 74 77 78 82 85 89 91 92 90 83 78 77 80 80 77 73 68 63
25 26 28 30 32 34 36 38 41 44 47 50 52 54 55 56 57 57 59 61 63 66 69 71 72 75 78 81 83 86 89 89 89 86 83 82 79 74 72 68 64 60 53
28 30 31 33 36 38 40 43 45 48 51 53 55 56 57 57 57 59 60 63 67 71 73 74 76 79 82 84 86 89 90 87 84 84 82 76 71 66 64 58 55 48 47
32 34 35 38 40 42 44 47 49 51 54 56 56 57 58 58 61 62 63 69 73 76 77 78 79 81 83 86 90 91 89 83 80 76 71 67 62 55 48 47 47 41 43
36 38 40 42 44 46 49 50 53 55 56 57 58 58 60 62 62 64 70 75 78 78 78 80 82 85 87 90 90 88 82 80 77 72 64 58 50 46 44 45 39 41 44
39 42 44 47 49 51 53 54 56 57 57 58 59 61 62 62 65 70 75 77 76 76 79 82 85 88 89 87 83 79 80 76 75 66 60 51 47 43 42 41 41 39 37

GFSMW_500_spd_069.txt.gz
Wind_Speed
8 7 10 13 12 11 11 11 13 12 9 6 5 4 6 9 11 14 16 16 17 18 16 15 16 18 20 22 25 27 30 34 36 37 36 39 38 42 44 45 47 50 53
1 4 6 5 6 5 3 2 2 1 1 3 4 6 8 11 15 17 19 20 20 20 18 20 20 22 24 25 28 31 35 38 37 35 38 41 44 44 44 47 51 55 58
2 1 1 1 1 2 3 3 5 6 7 9 11 13 14 17 18 19 21 21 20 20 22 24 24 26 28 27 31 36 38 37 36 38 39 42 43 48 54 58 58 58 64
3 4 3 4 4 6 7 9 10 11 11 13 15 17 20 21 22 22 22 21 21 23 26 28 29 31 32 31 36 38 36 38 41 41 42 43 49 51 57 64 65 65 69
5 6 8 9 9 9 10 11 13 14 16 18 19 21 23 24 25 24 25 23 24 26 28 35 40 34 35 37 41 40 40 43 48 46 45 49 52 55 60 62 64 67 76
13 15 16 15 15 15 15 16 17 17 18 19 20 22 24 26 27 27 28 26 29 31 33 38 32 31 36 37 39 42 43 48 52 50 51 52 54 57 62 67 67 71 75
16 16 19 17 16 14 16 17 18 16 18 20 20 19 21 20 22 27 30 32 34 35 37 33 36 35 38 37 40 42 46 51 52 51 53 56 59 57 63 68 66 79 78
17 15 16 16 15 16 17 17 18 20 20 18 18 18 20 21 25 23 27 32 33 32 31 33 39 41 39 38 42 49 48 50 54 55 54 58 64 70 71 71 81 79 80
23 19 17 16 17 19 18 19 19 19 19 20 21 21 24 24 26 29 31 34 36 37 39 39 41 43 35 42 45 51 44 50 53 57 63 65 70 70 70 78 78 81 82
23 21 18 17 15 16 18 19 20 21 22 24 25 26 26 28 31 33 36 37 37 42 44 42 39 33 43 49 48 50 47 53 61 64 72 73 73 77 80 79 83 85 86
24 22 21 20 21 20 21 21 23 25 27 27 27 29 31 32 36 38 40 40 42 41 40 32 35 45 42 50 51 43 48 62 67 69 74 78 72 82 85 84 85 85 86
24 25 24 24 24 26 27 28 28 29 30 31 32 31 35 39 41 44 44 44 45 44 41 40 39 47 40 53 51 55 60 74 70 72 79 80 81 84 82 83 84 85 85
23 23 24 25 27 30 32 34 34 35 35 36 36 39 41 42 44 45 46 47 47 46 42 41 43 43 47 53 57 63 72 72 71 75 78 78 78 79 81 83 84 85 86
23 22 22 24 26 29 33 37 39 40 41 42 44 45 45 44 45 46 46 47 47 45 45 47 48 49 52 55 57 61 64 66 67 70 71 74 76 78 81 82 83 84 87
26 24 26 26 26 27 29 30 33 37 39 39 41 41 41 43 44 45 45 46 48 47 47 48 50 52 55 58 60 64 66 68 69 69 69 72 74 76 80 82 82 86 88
25 27 29 30 30 30 31 31 34 36 35 34 36 39 41 42 43 45 45 46 47 46 48 51 53 56 59 61 63 65 67 68 69 70 71 74 78 81 84 83 83 84 87
28 29 29 30 31 32 33 32 34 37 37 38 38 39 40 42 43 43 43 44 46 49 51 54 57 60 62 64 66 67 67 68 69 71 73 76 81 85 85 86 88 90 92
28 28 28 29 31 32 33 34 35 37 39 39 40 41 42 42 41 42 44 47 49 52 55 59 61 64 65 66 67 67 68 70 71 73 76 80 84 84 84 88 90 92 94
29 30 29 30 31 32 32 32 33 35 36 38 40 41 41 41 42 44 47 50 53 56 58 61 64 65 67 66 66 68 70 70 72 76 80 85 85 84 87 91 92 92 87
32 33 33 32 31 31 32 33 35 36 37 38 39 40 41 43 45 48 50 53 56 59 61 64 65 66 67 66 68 70 70 72 75 80 83 84 85 87 88 91 91 88 81
34 34 34 34 34 33 34 36 38 37 38 39 40 42 44 46 48 50 54 57 60 61 64 65 66 66 68 70 69 69 74 77 80 84 85 85 86 87 89 89 87 83 78
34 34 35 36 36 36 37 37 36 38 40 42 43 45 47 49 52 55 59 61 62 63 65 65 67 69 69 69 69 73 77 82 85 86 85 87 86 87 87 85 81 76 72
36 35 35 34 34 34 35 37 39 40 43 45 47 48 50 54 57 61 61 63 65 66 66 67 68 69 68 72 74 78 82 85 85 86 86 86 86 85 83 79 73 69 66
40 38 36 34 35 36 38 40 43 45 47 49 50 53 56 59 61 62 63 64 65 66 68 68 67 69 73 76 80 83 86 85 86 86 86 87 85 83 80 72 67 64 60
41 38 37 37 39 40 42 44 46 48 50 53 56 59 60 62 64 63 63 63 66 68 69 69 70 73 77 81 85 86 85 87 87 87 87 85 82 78 71 66 65 60 55
41 40 41 43 43 45 48 51 52 53 54 57 60 61 61 63 63 63 64 66 68 69 70 73 76 78 82 85 86 86 88 88 88 86 84 81 78 72 66 62 61 55 50

GFSMW_500_spd_072.txt.gz
Wind_Speed
6 15 16 16 17 18 15 13 13 13 11 14 11 11 8 5 3 3 3 6 9 12 14 14 16 20 20 20 22 21 23 25 28 31 33 34 31 33 34 36 37 36 42
6 10 10 9 10 10 9 10 7 8 7 5 3 3 2 2 3 5 7 10 13 17 19 19 20 22 23 24 24 25 27 29 31 36 34 33 37 38 39 40 45 49 49
6 7 5 5 6 6 5 4 4 5 5 5 6 7 7 8 10 11 13 15 16 18 21 22 23 26 27 29 30 31 33 34 34 36 35 37 41 45 48 49 51 52 54
5 5 5 7 8 7 6 5 6 6 7 9 10 12 13 14 15 16 17 19 20 20 22 24 25 27 33 37 35 36 39 39 39 40 37 40 45 49 46 50 53 55 57
8 7 9 10 11 10 9 9 8 8 9 11 12 14 14 16 17 18 20 21 22 23 25 27 29 30 33 37 40 42 40 41 40 40 42 45 45 47 51 54 58 60 61
7 13 14 11 11 9 9 10 12 12 11 12 14 16 17 17 17 17 20 22 21 24 29 30 31 37 40 40 43 37 43 40 42 43 50 50 50 53 55 58 59 60 62
7 10 11 10 11 9 8 9 10 11 12 11 15 14 14 17 17 17 19 20 19 24 28 28 33 39 42 38 41 43 49 38 43 44 51 50 50 56 63 64 66 68 71
23 19 18 16 13 9 8 10 11 12 12 15 15 14 16 17 19 22 23 22 21 27 30 32 32 37 40 44 46 47 41 39 51 50 50 53 55 57 63 69 71 75 78
21 24 24 23 21 17 13 11 13 13 14 15 17 17 18 20 23 24 25 26 26 29 31 33 37 39 42 42 41 35 38 45 53 54 52 53 54 58 66 68 74 80 82
19 21 22 22 21 19 17 16 16 17 18 20 20 23 25 25 27 26 30 30 34 37 36 37 39 40 42 43 35 38 48 43 52 56 50 49 58 67 72 78 78 77 79
18 19 21 21 23 22 23 19 20 23 26 27 27 27 31 32 31 30 34 35 38 40 42 43 43 42 42 43 42 43 41 48 46 53 62 67 74 77 79 77 76 76 76
25 20 22 24 25 24 25 24 27 25 29 34 35 32 32 34 38 37 39 40 42 44 45 46 46 45 44 42 43 47 49 52 57 61 63 67 71 72 73 73 74 73 75
22 23 21 25 26 26 27 30 31 31 33 38 37 36 38 37 38 43 46 47 45 45 46 46 48 46 44 45 47 48 51 54 57 60 63 66 68 70 72 72 73 75 78
19 25 21 20 25 25 28 30 31 33 35 39 38 38 36 38 43 43 43 45 45 45 46 48 48 47 47 48 50 52 55 58 61 64 66 68 69 69 70 73 75 76 79
20 23 23 25 21 25 25 27 29 31 32 34 36 36 35 38 38 39 43 44 44 45 47 48 48 48 48 50 52 56 59 61 63 65 67 68 69 70 72 73 74 78 82
29 23 25 32 26 24 28 29 30 32 33 33 35 36 36 37 41 43 47 43 44 46 47 47 47 48 50 53 56 59 62 64 66 67 68 69 71 73 73 75 78 81 85
24 27 30 32 33 29 30 32 33 34 36 37 37 38 40 41 43 44 45 45 46 46 46 47 49 51 53 57 61 63 64 66 67 67 68 70 70 71 74 77 81 83 85
26 29 31 32 34 34 34 34 36 36 37 37 38 39 41 42 43 44 45 46 46 46 47 50 52 55 57 60 62 64 66 66 66 68 69 69 70 74 78 81 84 86 87
30 32 33 35 35 36 36 38 38 37 37 38 38 39 41 42 43 44 45 46 47 49 51 53 55 59 61 62 64 66 66 66 68 69 69 71 74 78 83 86 86 87 86
35 35 36 37 37 37 37 39 39 37 37 37 39 41 43 43 44 46 46 48 50 52 54 57 61 62 62 64 64 66 66 69 69 68 71 75 79 82 85 87 89 88 86
35 37 37 38 38 39 39 40 39 39 39 40 42 42 42 45 47 47 49 51 53 54 58 62 63 64 66 65 65 66 68 69 69 72 76 79 82 84 85 88 89 88 88
36 36 35 36 38 39 40 40 39 39 40 40 41 43 45 47 48 50 52 54 56 60 62 64 65 67 67 64 68 68 70 71 73 76 79 82 84 86 88 88 87 86 87
38 38 38 38 39 40 41 39 39 40 40 42 44 46 48 50 51 53 56 59 61 63 64 66 67 67 67 68 69 72 73 75 78 81 85 86 87 88 87 85 84 84 83
42 41 41 42 41 41 41 41 43 43 44 45 47 49 52 56 58 59 60 62 64 66 65 67 68 68 70 72 75 76 77 80 83 86 88 89 87 86 85 83 82 81 76
41 42 45 43 41 41 41 44 45 47 47 49 50 52 55 55 58 61 64 67 69 68 69 69 69 71 75 76 78 80 82 85 88 89 89 88 86 85 82 81 79 76 72
41 41 36 36 40 40 41 42 46 49 50 52 54 57 59 61 63 67 67 66 68 69 70 70 73 77 78 79 82 85 88 89 90 89 88 86 85 82 81 78 75 72 67

GFSMW_500_spd_075.txt.gz
Wind_Speed
15 18 18 16 10 6 9 11 8 11 12 16 17 18 18 14 13 13 14 13 5 2 5 10 14 13 18 19 19 20 22 24 27 29 28 27 29 30 28 31 34 37 41
7 10 12 15 17 18 18 17 18 15 14 15 13 14 12 10 10 8 4 2 4 7 10 13 17 16 17 20 22 24 25 29 30 33 35 34 32 32 31 32 37 37 39
12 11 12 12 12 11 12 11 11 9 7 9 8 8 8 6 6 3 2 4 7 10 12 14 17 20 21 22 25 29 31 35 37 40 41 41 38 38 39 39 36 34 36
10 11 12 12 11 10 10 8 8 6 5 4 5 5 5 4 4 5 5 6 8 11 13 15 17 21 23 24 26 28 31 33 38 38 46 42 41 39 42 46 50 50 46
6 5 8 9 7 6 5 5 4 3 2 3 3 5 5 5 5 7 9 8 11 13 15 16 20 21 27 27 30 31 38 43 43 43 46 43 39 42 46 49 50 53 53
6 5 6 6 6 5 4 2 1 4 6 4 4 5 5 7 6 6 9 10 11 11 9 16 18 19 21 23 33 36 38 42 45 45 53 43 35 40 46 51 53 53 54
5 8 10 10 10 9 9 8 9 8 7 9 7 7 7 11 9 8 9 15 15 15 17 19 21 20 22 25 29 33 38 37 39 49 46 44 44 45 53 56 56 54 56
8 8 9 10 13 13 11 13 14 13 8 9 12 10 11 14 15 16 16 19 20 19 21 22 25 28 28 31 34 35 38 39 39 45 34 40 52 53 55 55 55 57 61
15 18 14 13 11 13 14 14 14 15 13 11 11 14 16 16 20 22 22 25 24 24 20 27 32 34 33 36 38 38 38 40 38 35 41 41 46 56 46 51 61 68 66
21 22 18 14 13 9 13 15 16 14 13 13 14 15 19 23 23 25 28 29 26 27 28 31 36 34 39 39 40 40 41 40 39 42 44 44 45 50 59 64 64 65 67
21 23 26 26 19 15 13 16 20 20 16 24 19 20 24 28 31 28 28 33 30 30 31 36 37 40 41 39 39 41 41 42 44 43 44 46 49 52 57 61 64 66 68
18 18 18 23 24 19 20 20 20 21 15 25 25 25 32 38 37 29 34 30 31 36 41 37 36 41 41 41 42 43 43 44 44 45 47 50 54 58 61 64 67 68 69
22 11 14 16 21 23 20 21 19 18 22 27 26 29 27 32 36 33 35 32 40 43 37 37 41 43 43 44 44 43 44 45 47 49 51 54 58 61 65 67 67 67 69
23 18 14 16 18 19 20 23 24 25 26 27 29 31 32 33 35 33 37 39 39 35 40 43 44 45 46 46 46 45 47 48 50 53 56 60 62 64 66 66 67 69 70
27 31 28 18 15 18 21 25 27 29 31 32 32 33 33 33 34 35 38 39 39 40 43 45 43 46 46 47 46 48 50 52 55 58 61 62 64 66 66 67 69 70 70
21 25 25 27 12 12 18 23 27 28 30 32 34 35 35 35 36 36 38 39 43 44 45 46 46 46 47 47 49 51 52 56 60 62 64 66 67 66 68 69 72 73 75
16 21 27 26 24 22 23 26 29 31 32 34 34 36 37 38 38 40 41 43 45 46 46 46 46 47 48 50 52 54 57 61 63 64 66 67 67 67 69 70 71 73 76
24 24 28 31 32 32 31 32 32 34 34 35 38 39 39 40 40 40 41 43 45 47 46 48 49 50 52 54 56 58 61 64 66 67 66 66 68 68 69 71 73 75 79
27 30 30 32 33 35 36 37 36 35 36 38 39 41 41 42 42 43 45 46 47 47 49 50 52 53 54 56 59 62 63 66 67 67 68 68 69 71 74 75 77 80 82
30 30 33 35 35 36 37 38 37 38 40 40 41 41 41 43 44 45 47 46 47 49 51 52 54 56 58 60 63 65 66 68 69 68 68 71 72 74 78 81 82 84 87
31 33 33 33 35 37 38 39 38 38 40 41 41 42 43 44 45 45 45 47 49 51 53 55 58 60 63 64 66 68 69 69 68 69 71 73 76 79 82 86 88 91 93
34 35 37 35 35 35 35 36 36 38 39 40 41 42 44 44 44 46 47 49 51 55 59 60 60 61 65 67 69 70 70 69 71 72 74 74 79 83 86 90 93 95 95
40 40 36 37 39 40 39 38 39 41 40 42 42 44 44 44 46 47 50 52 56 58 59 62 64 65 66 66 68 70 70 71 73 76 78 80 84 87 91 94 95 93 91
45 40 40 41 43 40 37 39 40 40 41 42 42 44 45 47 49 51 54 55 57 60 61 64 67 67 67 68 70 70 71 75 78 81 83 85 88 91 93 93 91 90 87
40 40 39 40 42 42 40 37 37 40 42 41 43 46 49 52 53 54 56 59 61 63 66 68 69 67 68 70 71 74 78 80 81 83 86 89 91 92 91 88 86 85 82
43 44 45 43 42 42 39 38 40 42 44 46 49 53 55 57 58 60 62 63 66 68 70 71 68 69 71 73 76 79 80 82 85 88 91 92 92 91 88 87 85 81 77

GFSMW_500_spd_081.txt.gz
Wind_Speed
8 9 6 4 3 1 5 9 13 14 12 19 15 17 19 23 23 21 22 25 23 23 24 27 18 15 16 14 14 18 22 23 23 24 25 23 26 27 29 31 32 36 40
8 9 11 10 7 6 8 10 9 11 9 13 13 17 17 14 16 17 18 18 16 17 17 14 13 16 15 17 18 20 24 24 25 25 26 25 27 30 31 32 35 37 39
5 9 12 13 12 13 12 14 16 15 16 16 14 12 14 13 11 13 13 11 13 12 13 14 15 17 18 20 21 23 22 23 25 28 29 31 30 29 34 38 38 39 43
3 4 9 8 8 8 8 9 9 10 10 12 11 11 12 14 12 14 14 13 15 15 16 15 16 17 17 20 22 24 25 27 27 29 32 33 35 35 36 37 39 41 44
4 2 2 5 4 4 6 8 8 9 10 11 11 10 12 12 12 11 12 14 14 16 16 15 16 16 18 21 23 24 25 29 29 29 31 31 33 35 37 37 43 45 40
6 6 5 2 2 2 2 1 4 6 8 7 6 7 7 9 8 8 10 13 13 14 13 15 15 20 19 20 20 18 23 24 27 28 31 32 35 37 39 39 45 49 46
8 8 8 5 5 2 1 3 3 3 3 2 4 6 8 9 11 12 13 13 15 16 17 18 18 20 24 27 26 24 22 24 28 30 33 35 37 40 42 43 45 46 47
10 8 6 7 9 9 8 8 7 5 5 6 6 7 9 11 12 13 15 15 17 20 22 22 23 26 30 32 34 29 24 28 30 33 36 38 39 41 43 46 46 45 44
10 11 8 7 5 7 9 12 10 9 8 10 9 10 11 12 15 18 20 21 24 26 26 29 30 30 35 37 37 32 28 28 31 35 36 38 40 42 43 45 46 45 45
12 15 13 16 15 13 12 10 12 12 12 12 12 12 13 15 17 19 20 25 29 35 34 36 38 39 40 30 42 28 30 28 33 36 36 40 42 45 46 47 47 46 46
15 17 19 18 16 19 18 15 17 18 16 17 18 17 19 21 21 21 24 25 30 40 38 36 37 52 40 37 32 31 29 35 39 40 43 45 46 47 48 48 48 48 50
19 20 16 9 7 11 16 18 20 23 23 25 23 14 16 19 22 26 25 28 29 24 24 31 30 30 28 32 31 37 40 40 43 45 46 47 48 47 48 48 50 52 55
24 14 12 10 4 7 12 15 18 21 24 24 18 19 20 23 24 26 25 29 30 26 31 34 30 32 32 33 35 36 41 45 45 46 46 46 47 49 50 52 54 55 58
27 15 10 14 15 13 13 16 21 24 23 21 20 21 21 22 25 25 26 26 28 30 31 32 32 36 38 40 38 44 45 44 46 47 47 48 49 50 53 55 55 58 60
28 26 15 14 17 22 22 21 20 23 25 25 23 22 23 26 27 30 30 30 30 32 35 36 36 39 39 41 44 45 46 48 49 48 49 50 52 54 56 57 59 63 65
30 26 20 19 13 19 19 18 25 27 27 27 27 28 28 29 32 33 33 34 35 37 39 40 41 42 43 46 45 48 50 49 49 51 52 54 56 58 60 62 65 67 69
38 35 28 23 18 21 24 21 23 25 26 28 30 32 33 34 35 35 35 36 38 40 41 42 44 45 46 47 51 52 51 51 53 54 56 59 61 63 63 65 68 71 72
35 32 31 30 25 24 28 27 26 28 30 32 35 36 37 39 40 40 40 41 42 44 45 47 48 47 52 52 53 52 53 55 56 58 61 63 64 65 69 70 71 73 73
30 33 35 36 31 27 29 28 28 30 32 35 37 39 39 39 40 42 43 45 45 46 47 49 51 52 54 54 54 55 56 57 60 63 65 65 68 69 72 74 75 76 76
27 27 31 35 32 31 32 33 30 30 32 34 36 38 39 40 41 41 42 44 46 48 50 51 53 54 54 54 55 57 59 62 65 68 70 72 73 74 75 76 78 78 77
30 30 31 35 35 35 36 34 35 36 37 38 39 40 40 40 42 44 46 47 49 50 51 54 54 54 54 55 58 61 63 66 68 71 73 75 77 78 79 80 80 80 81
33 35 36 37 39 39 38 38 41 43 42 44 45 46 45 45 45 47 49 51 51 51 53 54 55 56 56 60 63 66 69 72 74 76 77 80 81 81 81 81 82 83 83
39 39 43 43 42 41 42 42 44 45 45 44 45 45 45 47 49 50 49 50 52 54 56 55 56 60 62 64 66 68 70 72 76 79 81 81 81 82 83 83 83 85 88
43 46 46 46 47 43 41 40 39 40 41 43 45 48 51 51 52 51 52 53 55 57 58 57 57 60 64 69 70 73 77 79 81 80 79 80 82 82 83 84 87 90 91
51 53 52 46 43 42 42 42 43 45 46 49 53 57 57 52 51 53 55 57 58 58 58 61 64 67 72 74 77 79 79 77 78 80 81 82 82 84 86 89 92 95 97
51 50 49 47 43 43 43 45 53 54 53 50 46 48 49 48 48 54 56 60 61 62 64 66 71 75 78 78 77 76 77 78 79 80 83 85 88 90 93 96 98 100 100

GFSMW_500_spd_084.txt.gz
Wind_Speed
8 10 13 9 2 8 12 15 14 16 22 19 14 14 19 22 24 25 26 29 33 35 32 28 27 31 29 27 21 16 20 22 22 24 25 23 25 26 29 28 29 31 32
7 7 10 12 7 9 12 13 13 12 11 15 19 14 19 21 26 22 27 24 24 29 26 27 27 27 23 19 17 19 22 22 24 25 26 26 27 29 30 30 32 33 36
5 8 7 8 9 8 10 9 9 9 12 15 15 14 17 22 24 30 26 24 22 24 21 18 19 16 16 17 21 23 22 22 23 25 28 29 29 32 32 34 35 38 39
3 6 7 5 3 8 12 11 13 14 14 16 17 18 16 16 16 17 17 14 14 12 12 14 14 17 21 21 23 22 21 24 26 27 29 28 29 33 35 36 36 36 39
8 3 2 4 3 3 5 6 7 8 9 9 7 6 8 7 8 8 11 13 12 14 16 19 19 20 18 21 23 23 22 25 26 29 30 31 31 34 33 36 37 41 43
7 6 5 3 2 3 4 4 4 4 6 7 9 10 11 11 12 13 13 13 14 16 17 17 18 20 21 23 24 24 23 24 25 31 32 31 31 33 34 37 39 40 44
8 10 6 6 6 2 1 2 3 3 5 6 9 11 13 14 14 12 12 13 13 14 16 18 17 19 23 24 26 28 29 28 32 33 31 32 33 36 38 40 42 43 45
12 11 9 9 8 8 8 6 5 5 5 6 7 9 11 11 11 11 12 12 13 13 16 19 21 24 26 25 28 32 30 41 40 39 31 34 35 37 40 42 42 43 44
13 14 9 9 8 9 10 10 8 8 10 12 10 9 8 9 10 9 9 11 12 16 19 21 24 27 29 33 35 39 40 40 41 42 36 34 34 38 43 45 45 46 47
20 18 18 16 15 17 16 14 11 12 11 11 12 13 13 13 15 14 14 15 17 18 21 25 31 36 39 40 36 46 42 45 40 36 40 32 35 42 50 49 47 49 49
19 19 18 19 22 23 24 22 18 17 15 16 19 19 19 19 19 16 17 18 20 22 24 28 33 35 44 40 38 29 34 40 41 43 40 41 45 48 48 48 50 50 49
17 15 15 18 19 17 15 21 22 21 21 23 24 24 24 20 19 17 19 21 23 24 26 32 36 39 33 33 22 25 26 32 36 43 43 44 50 49 49 49 48 49 50
20 18 14 17 14 14 14 16 20 21 23 24 22 24 24 20 23 20 23 23 25 26 29 31 31 37 32 30 31 32 34 34 36 40 44 50 50 49 51 49 49 51 53
29 23 15 13 15 17 17 17 18 22 24 23 23 20 18 21 21 23 25 27 29 30 33 35 34 36 36 35 36 39 40 42 42 46 50 52 54 54 52 52 53 54 55
30 27 23 15 15 18 19 23 25 27 26 25 25 24 24 24 25 27 30 31 32 34 35 37 37 37 37 39 37 44 45 46 49 51 51 55 57 54 52 53 54 56 59
28 29 29 26 19 17 19 19 19 22 25 26 26 26 26 26 28 31 33 34 35 36 37 38 39 41 42 44 45 47 46 48 48 54 56 55 53 54 55 56 58 62 63
32 30 31 30 26 24 20 23 24 21 24 28 29 30 29 30 32 33 35 37 39 40 41 42 43 45 47 47 47 48 47 52 54 54 55 54 55 55 58 61 65 66 69
39 35 33 31 27 27 25 22 24 26 26 28 30 32 34 35 36 37 38 39 41 42 43 44 46 47 48 49 50 52 54 55 56 56 57 58 61 63 65 67 70 73 73
37 34 29 27 29 26 25 23 24 25 28 29 31 33 34 35 37 39 41 43 45 46 47 47 48 50 52 54 55 57 56 58 59 61 63 65 67 68 71 75 77 79 78
36 34 30 28 24 25 27 25 27 30 32 34 36 37 38 39 41 42 45 47 48 49 50 52 54 55 56 58 59 59 61 61 61 64 66 69 72 75 77 78 78 79 82
35 40 32 27 26 26 26 27 29 34 38 38 39 42 44 46 48 48 48 48 50 52 53 54 55 57 58 59 61 62 65 65 65 68 70 72 75 77 78 80 82 83 83
33 31 34 33 30 29 30 34 42 41 44 46 46 46 46 47 48 45 44 45 48 52 55 58 58 59 59 60 63 66 66 67 69 71 73 74 78 81 84 85 84 82 83
39 37 38 36 33 35 36 38 38 42 47 49 45 42 41 42 42 44 47 52 55 58 58 58 58 60 62 64 67 69 69 71 73 75 78 82 85 85 85 84 84 85 85
43 40 38 35 36 38 41 43 47 47 44 43 44 42 43 46 50 54 55 54 52 53 53 56 58 61 63 67 70 72 73 76 80 83 84 83 83 84 86 88 88 89 90
38 42 43 49 49 50 47 48 47 44 44 45 45 47 49 54 55 58 53 52 52 54 56 57 59 63 65 66 67 69 71 74 76 78 81 85 86 87 88 90 92 94 95
44 46 46 45 45 44 43 47 50 44 44 48 51 56 58 56 56 54 52 54 57 58 57 59 62 63 66 69 71 73 76 78 82 84 85 85 88 91 94 96 98 101 103